GW0748 Weather Reports


time (UTC)temp
C
wind
direction
speed
KPH
gust
KPH
rain 1hr
cm
rain 24hr
cm
rain mn
cm
humidity
%
barometer
mb
20260507083625 17 25 3.2 9.7 0.00 1.45 1.02 80 1016.1
20260507083503 17 25 3.2 9.7 0.00 1.45 1.02 79 1016.2
20260507083404 17 34 3.2 9.7 0.00 1.45 1.02 80 1016.1
20260507083304 17 36 3.2 9.7 0.00 1.45 1.02 80 1016.1
20260507083203 17 31 3.2 9.7 0.00 1.45 1.02 81 1016.0
20260507083105 17 26 3.2 9.7 0.00 1.45 1.02 81 1016.1
20260507083004 17 17 3.2 8.0 0.00 1.45 1.02 80 1016.2
20260507082904 17 9 3.2 8.0 0.00 1.45 1.02 80 1016.4
20260507082804 17 3 3.2 8.0 0.00 1.45 1.02 81 1016.2
20260507082704 17 1 3.2 8.0 0.00 1.45 1.02 81 1016.4
20260507082603 17 358 3.2 8.0 0.00 1.45 1.02 80 1016.3
20260507082503 17 360 3.2 8.0 0.00 1.45 1.02 79 1016.3
20260507082405 17 1 3.2 8.0 0.00 1.45 1.02 80 1016.3
20260507082306 17 358 3.2 6.4 0.00 1.45 1.02 79 1016.4
20260507082204 17 357 3.2 6.4 0.00 1.45 1.02 80 1016.3
20260507082125 17 2 1.6 6.4 0.00 1.45 1.02 80 1016.3
20260507082004 17 18 1.6 6.4 0.00 1.45 1.02 81 1016.4
20260507081904 17 32 1.6 6.4 0.00 1.45 1.02 81 1016.3
20260507081804 17 45 1.6 6.4 0.00 1.45 1.02 81 1016.4
20260507081703 17 52 1.6 6.4 0.00 1.45 1.02 82 1016.5
20260507081604 17 52 1.6 6.4 0.00 1.45 1.02 83 1016.4
20260507081503 16 60 1.6 6.4 0.00 1.45 1.02 83 1016.4
20260507081405 16 68 1.6 6.4 0.00 1.45 1.02 84 1016.7
20260507081303 16 80 1.6 6.4 0.00 1.45 1.02 84 1016.4
20260507081204 16 79 1.6 6.4 0.00 1.45 1.02 83 1016.5
20260507081125 16 82 1.6 6.4 0.00 1.45 1.02 83 1016.5
20260507081003 16 83 1.6 6.4 0.00 1.45 1.02 83 1016.4
20260507080903 16 80 1.6 6.4 0.00 1.45 1.02 83 1016.5
20260507080804 16 74 1.6 6.4 0.00 1.45 1.02 83 1016.4
20260507080704 16 65 3.2 6.4 0.00 1.45 1.02 82 1016.4
20260507080625 16 61 3.2 6.4 0.00 1.45 1.02 82 1016.4
20260507080503 16 45 3.2 6.4 0.00 1.45 1.02 83 1016.5
20260507080403 16 34 3.2 6.4 0.00 1.45 1.02 82 1016.4
20260507080304 16 23 3.2 6.4 0.00 1.45 1.02 82 1016.4
20260507080224 16 13 3.2 6.4 0.00 1.45 1.02 82 1016.4
20260507080104 16 359 3.2 6.4 0.00 1.45 1.02 81 1016.4
20260507080004 16 353 3.2 6.4 0.00 1.45 1.02 83 1016.3
20260507075904 16 350 3.2 6.4 0.00 1.45 1.02 83 1016.5
20260507075804 16 354 3.2 6.4 0.00 1.45 1.02 82 1016.4
20260507075703 16 3 3.2 9.7 0.00 1.45 1.02 82 1016.5
20260507075605 16 13 3.2 9.7 0.00 1.45 1.02 82 1016.4
20260507075503 16 22 3.2 9.7 0.00 1.45 1.02 82 1016.4
20260507075404 16 28 3.2 9.7 0.00 1.45 1.02 81 1016.3
20260507075306 16 29 3.2 9.7 0.00 1.45 1.02 81 1016.5
20260507075204 17 32 3.2 9.7 0.00 1.45 1.02 81 1016.3
20260507075104 17 33 3.2 9.7 0.00 1.45 1.02 80 1016.2
20260507075005 17 35 3.2 9.7 0.00 1.45 1.02 82 1016.2
20260507074903 17 38 3.2 9.7 0.00 1.45 1.02 82 1016.5
20260507074803 17 39 3.2 9.7 0.00 1.45 1.02 83 1016.5
20260507074724 17 38 3.2 9.7 0.00 1.45 1.02 83 1016.5
20260507074604 17 33 1.6 8.0 0.00 1.45 1.02 83 1016.3
20260507074505 17 36 1.6 8.0 0.00 1.45 1.02 83 1016.1
20260507074404 17 45 3.2 6.4 0.00 1.45 1.02 82 1016.3
20260507074303 17 48 3.2 6.4 0.00 1.45 1.02 82 1016.3
20260507074203 17 57 3.2 6.4 0.00 1.45 1.02 82 1016.4
20260507074103 17 63 3.2 6.4 0.00 1.45 1.02 83 1016.3
20260507074004 17 65 3.2 6.4 0.00 1.45 1.02 82 1016.3
20260507073903 17 64 3.2 6.4 0.00 1.45 1.02 84 1016.5
20260507073804 17 63 3.2 6.4 0.00 1.45 1.02 85 1016.3
20260507073704 16 62 3.2 6.4 0.00 1.45 1.02 85 1016.3
20260507073604 16 63 3.2 6.4 0.00 1.45 1.02 84 1016.5
20260507073503 16 59 3.2 6.4 0.00 1.45 1.02 84 1016.3
20260507073403 16 55 3.2 6.4 0.00 1.45 1.02 84 1016.3
20260507073303 16 55 3.2 8.0 0.00 1.45 1.02 85 1016.5
20260507073204 16 55 3.2 8.0 0.00 1.45 1.02 85 1016.2
20260507073103 16 52 3.2 8.0 0.00 1.45 1.02 85 1016.2
20260507073026 16 50 3.2 8.0 0.00 1.45 1.02 85 1016.2
20260507072925 16 52 3.2 8.0 0.00 1.45 1.02 85 1016.3
20260507072804 16 57 3.2 8.0 0.00 1.45 1.02 85 1016.3
20260507072724 16 59 3.2 8.0 0.00 1.45 1.02 85 1016.3
20260507072603 16 55 3.2 8.0 0.00 1.45 1.02 85 1016.3
20260507072504 16 55 3.2 8.0 0.00 1.45 1.02 86 1016.1
20260507072403 16 55 3.2 8.0 0.00 1.45 1.02 86 1016.2
20260507072306 16 58 3.2 8.0 0.00 1.45 1.02 86 1016.2
20260507072204 16 55 3.2 8.0 0.00 1.45 1.02 86 1016.3
20260507072104 16 54 3.2 8.0 0.00 1.45 1.02 87 1016.3
20260507072024 16 53 3.2 8.0 0.00 1.45 1.02 86 1016.3
20260507071903 16 54 3.2 8.0 0.00 1.45 1.02 87 1016.4
20260507071804 16 50 3.2 8.0 0.00 1.45 1.02 87 1016.4
20260507071703 16 50 3.2 8.0 0.00 1.45 1.02 87 1016.3
20260507071625 16 50 3.2 8.0 0.00 1.45 1.02 87 1016.3
20260507071505 16 42 3.2 8.0 0.00 1.45 1.02 87 1016.6
20260507071424 16 35 3.2 8.0 0.00 1.45 1.02 87 1016.6
20260507071303 16 25 3.2 8.0 0.00 1.45 1.02 88 1016.6
20260507071224 16 26 3.2 8.0 0.00 1.45 1.02 88 1016.6
20260507071105 15 24 3.2 8.0 0.00 1.45 1.02 88 1016.4
20260507071003 15 20 3.2 8.0 0.00 1.45 1.02 88 1016.5
20260507070926 15 17 3.2 8.0 0.00 1.45 1.02 87 1016.5
20260507070804 15 14 3.2 8.0 0.00 1.45 1.02 87 1016.5
20260507070703 15 11 3.2 6.4 0.00 1.45 1.02 87 1016.5
20260507070625 15 14 3.2 6.4 0.00 1.45 1.02 87 1016.5
20260507070504 15 27 3.2 8.0 0.00 1.45 1.02 87 1016.5
20260507070403 15 33 3.2 8.0 0.00 1.45 1.02 88 1016.5
20260507070304 15 36 3.2 8.0 0.00 1.45 1.02 88 1016.4
20260507070204 15 35 3.2 8.0 0.00 1.45 1.02 87 1016.4
20260507070104 15 32 3.2 8.0 0.00 1.45 1.02 87 1016.5
20260507070008 15 32 3.2 8.0 0.00 1.45 1.02 90 1016.4
20260507065904 15 31 3.2 8.0 0.00 1.45 1.02 90 1016.4
20260507065804 15 26 3.2 8.0 0.00 1.45 1.02 90 1016.5
20260507065726 15 26 3.2 8.0 0.00 1.45 1.02 91 1016.5
20260507065604 15 26 3.2 6.4 0.00 1.45 1.02 91 1016.5
20260507065504 15 23 3.2 6.4 0.00 1.45 1.02 90 1016.3
20260507065404 15 19 3.2 6.4 0.00 1.45 1.02 90 1016.6
20260507065306 15 17 3.2 6.4 0.00 1.45 1.02 90 1016.4
20260507065204 15 16 3.2 6.4 0.00 1.45 1.02 90 1016.1
20260507065124 15 16 3.2 6.4 0.00 1.45 1.02 90 1016.1
20260507065003 15 21 3.2 6.4 0.00 1.45 1.02 92 1016.3
20260507064903 15 17 3.2 6.4 0.00 1.45 1.02 91 1016.3
20260507064804 15 20 1.6 6.4 0.00 1.45 1.02 93 1016.3
20260507064703 15 18 1.6 6.4 0.00 1.45 1.02 92 1016.2
20260507064603 15 10 1.6 6.4 0.00 1.45 1.02 92 1016.1
20260507064503 15 5 1.6 6.4 0.00 1.45 1.02 91 1016.3
20260507064426 15 3 1.6 6.4 0.00 1.45 1.02 91 1016.3
20260507064325 15 359 1.6 6.4 0.00 1.45 1.02 91 1016.3
20260507064204 15 1 1.6 6.4 0.00 1.45 1.02 92 1016.3
20260507064105 15 5 1.6 6.4 0.00 1.45 1.02 93 1016.2
20260507064003 15 360 1.6 6.4 0.00 1.45 1.02 93 1016.2
20260507063924 15 359 1.6 6.4 0.00 1.45 1.02 93 1016.2
20260507063803 14 6 1.6 6.4 0.00 1.45 1.02 93 1016.4
20260507063704 14 9 1.6 6.4 0.00 1.45 1.02 93 1016.2
20260507063603 14 13 1.6 4.8 0.00 1.45 1.02 93 1016.1
20260507063503 14 23 1.6 6.4 0.00 1.45 1.02 93 1016.0
20260507063404 14 31 3.2 8.0 0.00 1.45 1.02 92 1016.2
20260507063304 14 36 3.2 8.0 0.00 1.45 1.02 92 1016.3
20260507063204 14 40 3.2 8.0 0.00 1.45 1.02 91 1016.2
20260507063104 14 39 3.2 8.0 0.00 1.45 1.02 91 1016.4
20260507063003 14 41 3.2 8.0 0.00 1.45 1.02 93 1016.1
20260507062903 14 38 3.2 8.0 0.00 1.45 1.02 93 1016.2
20260507062803 14 37 3.2 8.0 0.00 1.45 1.02 93 1016.2
20260507062725 14 37 3.2 8.0 0.00 1.45 1.02 94 1016.2
20260507062624 14 36 3.2 8.0 0.00 1.45 1.02 94 1015.9
20260507062503 14 33 3.2 8.0 0.00 1.45 1.02 95 1016.1
20260507062403 14 31 3.2 6.4 0.00 1.45 1.02 95 1016.1
20260507062306 14 30 3.2 6.4 0.00 1.45 1.02 95 1016.0
20260507062204 14 28 3.2 6.4 0.00 1.45 1.02 95 1016.1
20260507062104 14 30 3.2 6.4 0.00 1.45 1.02 95 1016.1
20260507062003 14 27 3.2 6.4 0.00 1.45 1.02 95 1016.0
20260507061904 14 24 3.2 6.4 0.00 1.45 1.02 95 1016.0
20260507061803 14 25 3.2 6.4 0.00 1.45 1.02 95 1016.0
20260507061703 14 25 3.2 6.4 0.00 1.45 1.02 95 1016.0
20260507061603 14 25 3.2 6.4 0.00 1.45 1.02 96 1015.9
20260507061503 14 26 3.2 6.4 0.00 1.45 1.02 96 1016.0
20260507061403 13 25 3.2 6.4 0.00 1.45 1.02 96 1016.0
20260507061304 13 19 3.2 6.4 0.00 1.45 1.02 96 1015.9
20260507061204 13 11 1.6 6.4 0.00 1.45 1.02 95 1016.0
20260507061103 13 5 1.6 6.4 0.00 1.45 1.02 96 1016.3
20260507061003 13 8 1.6 6.4 0.00 1.45 1.02 98 1016.1
20260507060903 13 20 1.6 6.4 0.00 1.45 1.02 98 1016.1
20260507060824 13 24 1.6 6.4 0.00 1.45 1.02 98 1016.1
20260507060703 13 21 1.6 4.8 0.00 1.45 1.02 98 1016.1
20260507060625 13 23 1.6 4.8 0.00 1.45 1.02 98 1016.1
20260507060504 13 14 1.6 4.8 0.00 1.45 1.02 98 1016.0
20260507060403 13 6 1.6 4.8 0.00 1.45 1.02 98 1016.0
20260507060303 13 13 1.6 4.8 0.00 1.45 1.02 98 1016.0
20260507060204 13 15 1.6 4.8 0.00 1.45 1.02 98 1016.1
20260507060103 13 24 1.6 4.8 0.00 1.45 1.02 98 1016.0
20260507060004 13 20 1.6 4.8 0.00 1.45 1.02 98 1015.8
20260507055903 13 11 1.6 4.8 0.00 1.45 1.02 98 1015.9
20260507055824 13 4 1.6 4.8 0.00 1.45 1.02 98 1015.9
20260507055724 13 358 1.6 4.8 0.00 1.45 1.02 98 1015.9
20260507055603 13 353 1.6 4.8 0.00 1.45 1.02 98 1016.0
20260507055504 13 347 1.6 4.8 0.00 1.45 1.02 98 1016.0
20260507055425 13 347 1.6 4.8 0.00 1.45 1.02 98 1016.0
20260507055306 13 345 1.6 4.8 0.00 1.45 1.02 98 1016.0
20260507055203 13 346 1.6 4.8 0.00 1.45 1.02 98 1016.1
20260507055105 13 344 1.6 4.8 0.00 1.45 1.02 98 1016.0
20260507055003 13 345 1.6 4.8 0.00 1.45 1.02 98 1015.9
20260507054903 13 345 1.6 4.8 0.00 1.45 1.02 98 1016.1
20260507054825 13 344 1.6 4.8 0.00 1.45 1.02 98 1016.1
20260507054704 13 339 1.6 4.8 0.00 1.45 1.02 98 1016.1
20260507054624 13 339 1.6 4.8 0.00 1.45 1.02 98 1016.1
20260507054503 13 340 1.6 6.4 0.00 1.45 1.02 98 1015.9
20260507054403 13 339 1.6 6.4 0.00 1.45 1.02 98 1015.9
20260507054304 12 339 1.6 6.4 0.00 1.45 1.02 98 1016.1
20260507054203 12 337 1.6 6.4 0.00 1.45 1.02 98 1015.9
20260507054103 12 336 1.6 6.4 0.00 1.45 1.02 98 1016.0
20260507054003 12 332 1.6 6.4 0.00 1.45 1.02 98 1015.9
20260507053903 12 331 1.6 6.4 0.00 1.45 1.02 98 1016.1
20260507053803 12 336 1.6 6.4 0.00 1.45 1.02 98 1016.0
20260507053704 12 340 1.6 6.4 0.00 1.45 1.02 98 1016.1
20260507053604 12 343 1.6 6.4 0.00 1.45 1.02 98 1016.0
20260507053504 12 347 1.6 4.8 0.00 1.45 1.02 98 1016.1
20260507053404 12 347 1.6 3.2 0.00 1.45 1.02 98 1015.9
20260507053303 12 350 1.6 3.2 0.00 1.45 1.02 98 1015.9
20260507053224 12 352 1.6 3.2 0.00 1.45 1.02 98 1015.9
20260507053105 12 360 0.0 3.2 0.00 1.45 1.02 98 1016.0
20260507053024 12 5 0.0 3.2 0.00 1.45 1.02 98 1016.0
20260507052905 12 18 0.0 3.2 0.00 1.45 1.02 98 1016.0
20260507052804 12 19 0.0 3.2 0.00 1.45 1.02 98 1015.8
20260507052704 12 20 0.0 3.2 0.00 1.45 1.02 98 1015.9
20260507052603 12 19 0.0 3.2 0.00 1.45 1.02 98 1015.9
20260507052504 12 13 0.0 3.2 0.00 1.45 1.02 98 1015.8
20260507052403 12 7 0.0 3.2 0.00 1.45 1.02 98 1015.8
20260507052306 12 358 0.0 3.2 0.00 1.45 1.02 98 1015.9
20260507052226 12 354 1.6 3.2 0.00 1.45 1.02 98 1015.9
20260507052125 12 344 1.6 3.2 0.00 1.45 1.02 98 1015.8
20260507052024 12 333 1.6 3.2 0.00 1.45 1.02 98 1015.9
20260507051903 12 315 1.6 3.2 0.00 1.45 1.02 98 1015.8
20260507051804 12 307 1.6 3.2 0.00 1.45 1.02 98 1015.8
20260507051724 12 303 1.6 3.2 0.00 1.45 1.02 98 1015.8
20260507051603 12 302 1.6 3.2 0.00 1.45 1.02 98 1015.8
20260507051504 12 301 1.6 4.8 0.00 1.45 1.02 98 1015.8
20260507051425 12 302 1.6 4.8 0.00 1.45 1.02 98 1015.8
20260507051304 12 312 0.0 4.8 0.00 1.45 1.02 98 1015.9
20260507051203 12 313 1.6 4.8 0.00 1.45 1.02 98 1015.9
20260507051105 12 323 1.6 4.8 0.00 1.45 1.02 98 1016.0
20260507051003 12 330 1.6 4.8 0.00 1.45 1.02 98 1015.6
20260507050904 12 336 1.6 4.8 0.00 1.45 1.02 98 1015.8
20260507050803 12 342 1.6 4.8 0.00 1.45 1.02 98 1015.8
20260507050704 12 345 1.6 4.8 0.00 1.45 1.02 98 1015.7
20260507050604 12 347 1.6 4.8 0.00 1.45 1.02 98 1015.9
20260507050525 12 349 1.6 4.8 0.00 1.45 1.02 98 1015.9
20260507050403 12 355 1.6 3.2 0.00 1.45 1.02 98 1015.9
20260507050303 12 354 1.6 3.2 0.00 1.45 1.02 98 1015.9
20260507050226 12 359 0.0 3.2 0.00 1.45 1.02 98 1015.9
20260507050104 12 355 1.6 4.8 0.00 1.45 1.02 98 1015.7
20260507050005 12 356 1.6 4.8 0.00 1.45 1.02 98 1015.8
20260507045903 12 359 1.6 4.8 0.00 1.45 1.02 98 1015.8
20260507045804 12 3 1.6 4.8 0.00 1.45 1.02 98 1015.7
20260507045704 12 4 1.6 4.8 0.00 1.45 1.02 98 1015.8
20260507045603 12 5 1.6 4.8 0.00 1.45 1.02 98 1015.6
20260507045503 12 7 1.6 4.8 0.00 1.45 1.02 98 1015.7
20260507045404 12 8 1.6 4.8 0.00 1.45 1.02 98 1015.7
20260507045306 12 11 1.6 4.8 0.00 1.45 1.02 98 1015.8
20260507045203 12 9 1.6 4.8 0.00 1.47 1.02 98 1015.7
20260507045103 12 10 1.6 4.8 0.00 1.50 1.02 98 1015.6
20260507045005 12 9 1.6 4.8 0.00 1.50 1.02 98 1015.5
20260507044905 12 9 1.6 4.8 0.00 1.50 1.02 98 1015.6
20260507044804 12 9 1.6 4.8 0.00 1.50 1.02 98 1015.6
20260507044703 12 16 1.6 4.8 0.00 1.50 1.02 98 1015.5
20260507044603 12 17 1.6 4.8 0.00 1.50 1.02 98 1015.6
20260507044503 12 21 1.6 4.8 0.00 1.50 1.02 97 1015.6
20260507044403 12 22 1.6 4.8 0.00 1.50 1.02 97 1015.4
20260507044303 12 26 1.6 4.8 0.00 1.52 1.02 97 1015.4
20260507044205 12 29 1.6 4.8 0.00 1.52 1.02 97 1015.5
20260507044105 12 30 1.6 3.2 0.00 1.52 1.02 97 1015.5
20260507044024 12 31 1.6 3.2 0.00 1.52 1.02 97 1015.5
20260507043904 12 31 1.6 4.8 0.00 1.55 1.02 97 1015.5
20260507043803 12 31 1.6 4.8 0.00 1.55 1.02 97 1015.3
20260507043703 12 25 1.6 4.8 0.00 1.55 1.02 97 1015.3
20260507043624 12 24 1.6 4.8 0.00 1.55 1.02 97 1015.3
20260507043505 12 25 1.6 6.4 0.00 1.55 1.02 97 1015.4
20260507043403 12 24 1.6 6.4 0.00 1.55 1.02 97 1015.4
20260507043304 12 20 1.6 6.4 0.00 1.55 1.02 97 1015.3
20260507043203 12 16 1.6 6.4 0.00 1.55 1.02 97 1015.5
20260507043103 12 19 1.6 6.4 0.00 1.55 1.02 97 1015.6
20260507043004 12 18 1.6 6.4 0.00 1.57 1.02 97 1015.6
20260507042904 12 19 1.6 6.4 0.00 1.57 1.02 97 1015.7
20260507042804 12 23 1.6 6.4 0.00 1.57 1.02 97 1015.4
20260507042703 12 26 1.6 6.4 0.00 1.57 1.02 97 1015.7
20260507042605 12 29 1.6 6.4 0.00 1.57 1.02 97 1015.5
20260507042524 12 29 1.6 6.4 0.00 1.57 1.02 97 1015.5
20260507042403 12 25 1.6 4.8 0.00 1.57 1.02 97 1015.6
20260507042324 12 26 1.6 4.8 0.00 1.57 1.02 97 1015.6
20260507042203 12 27 1.6 4.8 0.00 1.57 1.02 97 1015.6
20260507042103 12 29 1.6 4.8 0.00 1.57 1.02 97 1015.6
20260507042004 12 30 1.6 4.8 0.00 1.57 1.02 97 1015.5
20260507041904 12 30 1.6 4.8 0.00 1.57 1.02 97 1015.5
20260507041804 12 28 1.6 4.8 0.00 1.57 1.02 97 1015.4
20260507041703 12 27 1.6 4.8 0.00 1.57 1.02 97 1015.3
20260507041603 12 26 1.6 4.8 0.00 1.57 1.02 97 1015.3
20260507041505 12 28 1.6 4.8 0.00 1.57 1.02 97 1015.4
20260507041405 12 31 1.6 4.8 0.00 1.57 1.02 97 1015.5
20260507041305 12 33 1.6 4.8 0.00 1.57 1.02 97 1015.5
20260507041203 12 34 1.6 4.8 0.00 1.57 1.02 97 1015.5
20260507041103 12 33 1.6 4.8 0.00 1.57 1.02 97 1015.5
20260507041004 12 34 1.6 4.8 0.00 1.57 1.02 97 1015.5
20260507040903 12 34 1.6 4.8 0.00 1.57 1.02 97 1015.3
20260507040803 12 35 1.6 4.8 0.00 1.57 1.02 97 1015.3
20260507040703 12 35 1.6 4.8 0.00 1.57 1.02 97 1015.3
20260507040603 12 34 1.6 4.8 0.00 1.57 1.02 97 1015.3
20260507040503 12 34 1.6 4.8 0.00 1.57 1.02 97 1015.5
20260507040404 12 34 1.6 4.8 0.00 1.57 1.02 97 1015.5
20260507040303 12 34 1.6 4.8 0.00 1.57 1.02 97 1015.3
20260507040203 12 37 1.6 4.8 0.00 1.57 1.02 97 1015.4
20260507040124 12 38 1.6 4.8 0.00 1.57 1.02 97 1015.4
20260507040003 12 34 1.6 4.8 0.00 1.57 1.02 97 1015.4
20260507035925 12 33 1.6 4.8 0.00 1.57 1.02 97 1015.4
20260507035804 12 30 1.6 4.8 0.00 1.57 1.02 97 1015.5
20260507035724 12 29 1.6 4.8 0.00 1.57 1.02 97 1015.5
20260507035603 12 27 1.6 4.8 0.00 1.57 1.02 97 1015.5
20260507035504 12 25 1.6 4.8 0.00 1.57 1.02 97 1015.3
20260507035404 12 26 1.6 4.8 0.00 1.57 1.02 97 1015.4
20260507035306 12 26 1.6 4.8 0.00 1.57 1.02 97 1015.5
20260507035205 12 24 1.6 4.8 0.00 1.57 1.02 97 1015.3
20260507035126 12 22 1.6 4.8 0.00 1.57 1.02 97 1015.3
20260507035027 12 23 1.6 4.8 0.00 1.57 1.02 97 1015.4
20260507034906 12 23 1.6 4.8 0.00 1.57 1.02 97 1015.5
20260507034805 12 25 1.6 4.8 0.00 1.57 1.02 97 1015.3
20260507034705 12 24 1.6 4.8 0.00 1.57 1.02 97 1015.4
20260507034605 12 26 1.6 4.8 0.00 1.57 1.02 97 1015.5
20260507034505 12 28 1.6 4.8 0.00 1.57 1.02 97 1015.5
20260507034405 12 28 1.6 4.8 0.00 1.57 1.02 97 1015.4
20260507034326 12 29 3.2 6.4 0.00 1.57 1.02 97 1015.4
20260507034205 12 28 1.6 6.4 0.00 1.57 1.02 97 1015.4
20260507034105 12 29 1.6 6.4 0.00 1.57 1.02 97 1015.5
20260507034005 12 29 1.6 6.4 0.00 1.57 1.02 97 1015.4
20260507033905 12 26 1.6 6.4 0.00 1.57 1.02 97 1015.5
20260507033805 12 23 1.6 6.4 0.00 1.57 1.02 97 1015.5
20260507033705 12 24 1.6 6.4 0.00 1.57 1.02 97 1015.4
20260507033605 12 25 1.6 6.4 0.00 1.57 1.02 97 1015.4
20260507033506 12 26 1.6 6.4 0.00 1.57 1.02 97 1015.4
20260507033426 12 23 1.6 6.4 0.00 1.57 1.02 97 1015.4
20260507033305 12 19 1.6 4.8 0.00 1.57 1.02 97 1015.6
20260507033226 12 19 1.6 4.8 0.00 1.57 1.02 97 1015.6
20260507033105 12 13 1.6 4.8 0.00 1.57 1.02 97 1015.7
20260507033006 12 12 1.6 4.8 0.00 1.57 1.02 97 1015.6
20260507032926 12 17 1.6 4.8 0.00 1.57 1.02 97 1015.6
20260507032826 12 18 1.6 4.8 0.00 1.57 1.02 97 1015.6
20260507032726 12 15 1.6 4.8 0.00 1.57 1.02 97 1015.3
20260507032605 12 11 1.6 4.8 0.00 1.57 1.02 97 1015.6
20260507032505 12 9 1.6 3.2 0.00 1.57 1.02 97 1015.5
20260507032405 12 10 0.0 3.2 0.00 1.57 1.02 97 1015.7
20260507032326 12 10 0.0 3.2 0.03 1.57 1.02 97 1015.7
20260507032226 12 6 1.6 3.2 0.03 1.57 1.02 97 1015.7
20260507032105 12 4 1.6 3.2 0.03 1.57 1.02 97 1015.4
20260507032005 12 4 1.6 3.2 0.03 1.57 1.02 97 1015.5
20260507031905 12 2 1.6 3.2 0.03 1.57 1.02 97 1015.4
20260507031805 12 4 1.6 3.2 0.03 1.57 1.02 97 1015.6
20260507031705 12 5 1.6 3.2 0.03 1.57 1.02 97 1015.4
20260507031606 12 6 1.6 3.2 0.03 1.57 1.02 97 1015.4
20260507031505 12 5 1.6 3.2 0.03 1.57 1.02 97 1015.3
20260507031404 12 6 1.6 3.2 0.03 1.57 1.02 97 1015.4
20260507031306 12 8 1.6 3.2 0.05 1.57 1.02 97 1015.5
20260507031205 12 12 1.6 3.2 0.05 1.57 1.02 97 1015.5
20260507031106 12 14 1.6 3.2 0.05 1.57 1.02 97 1015.3
20260507031005 12 12 1.6 3.2 0.05 1.57 1.02 97 1015.5
20260507030905 12 9 1.6 3.2 0.05 1.57 1.02 97 1015.2
20260507030805 12 7 1.6 3.2 0.05 1.57 1.02 97 1015.6
20260507030705 12 4 1.6 3.2 0.05 1.57 1.02 97 1015.4
20260507030626 12 359 1.6 3.2 0.05 1.57 1.02 97 1015.4
20260507030505 12 353 1.6 3.2 0.05 1.57 1.02 97 1015.3
20260507030405 12 345 1.6 3.2 0.05 1.57 1.02 97 1015.4
20260507030305 12 336 1.6 3.2 0.05 1.57 1.02 97 1015.4
20260507030205 12 331 1.6 3.2 0.05 1.57 1.02 97 1015.5
20260507030105 12 328 1.6 3.2 0.05 1.57 1.02 97 1015.5
20260507030005 12 328 1.6 3.2 0.05 1.57 1.02 97 1015.4
20260507025905 12 331 1.6 3.2 0.05 1.57 1.02 97 1015.5
20260507025805 12 327 1.6 3.2 0.05 1.57 1.02 97 1015.3
20260507025705 12 327 1.6 3.2 0.05 1.57 1.02 97 1015.5
20260507025627 12 331 1.6 3.2 0.05 1.57 1.02 97 1015.5
20260507025505 12 339 1.6 3.2 0.05 1.60 1.02 97 1015.3
20260507025405 12 341 1.6 3.2 0.05 1.60 1.02 97 1015.4
20260507025306 12 345 1.6 3.2 0.05 1.60 1.02 97 1015.2
20260507025226 12 345 1.6 3.2 0.05 1.60 1.02 97 1015.2
20260507025105 12 351 1.6 3.2 0.05 1.60 1.02 97 1015.3
20260507025005 12 356 1.6 3.2 0.05 1.60 1.02 97 1015.5
20260507024926 12 358 1.6 3.2 0.05 1.60 1.02 97 1015.5
20260507024805 12 6 1.6 3.2 0.05 1.60 1.02 97 1015.3
20260507024726 12 13 1.6 3.2 0.05 1.60 1.02 97 1015.3
20260507024605 12 10 1.6 3.2 0.05 1.60 1.02 97 1015.2
20260507024505 12 8 1.6 3.2 0.05 1.63 1.02 97 1015.5
20260507024405 12 17 0.0 3.2 0.05 1.63 1.02 97 1015.3
20260507024305 12 22 0.0 3.2 0.05 1.63 1.02 97 1015.3
20260507024205 12 26 1.6 3.2 0.08 1.65 1.02 97 1015.4
20260507024105 12 24 1.6 3.2 0.08 1.65 1.02 97 1015.4
20260507024006 12 24 1.6 3.2 0.08 1.65 1.02 97 1015.3
20260507023906 12 26 1.6 3.2 0.08 1.65 1.02 97 1015.3
20260507023826 12 27 1.6 4.8 0.08 1.65 1.02 97 1015.3
20260507023705 12 36 1.6 4.8 0.08 1.65 1.02 97 1015.3
20260507023605 12 49 1.6 4.8 0.08 1.65 1.02 97 1015.4
20260507023505 12 55 1.6 4.8 0.08 1.65 1.02 97 1015.4
20260507023404 12 57 1.6 4.8 0.08 1.65 1.02 97 1015.3
20260507023305 12 56 1.6 4.8 0.08 1.65 1.02 97 1015.2
20260507023205 12 63 1.6 4.8 0.08 1.65 1.02 97 1015.3
20260507023105 12 65 1.6 4.8 0.08 1.65 1.02 97 1015.4
20260507023005 12 67 1.6 4.8 0.08 1.65 1.02 97 1015.3
20260507022905 12 67 1.6 4.8 0.08 1.65 1.02 97 1015.4
20260507022805 12 68 1.6 4.8 0.05 1.65 1.02 97 1015.4
20260507022704 12 73 1.6 4.8 0.05 1.65 1.02 97 1015.2
20260507022605 12 76 1.6 4.8 0.05 1.65 1.02 97 1015.3
20260507022505 12 78 1.6 6.4 0.05 1.65 1.02 97 1015.4
20260507022405 12 85 1.6 6.4 0.05 1.65 1.02 97 1015.3
20260507022306 12 88 1.6 6.4 0.05 1.63 0.99 97 1015.3
20260507022205 12 92 1.6 6.4 0.05 1.63 0.99 97 1015.4
20260507022105 12 97 1.6 6.4 0.05 1.63 0.99 97 1015.2
20260507022005 12 100 3.2 6.4 0.05 1.63 0.99 97 1015.3
20260507021905 12 103 3.2 6.4 0.05 1.63 0.99 97 1015.3
20260507021826 12 103 3.2 6.4 0.05 1.63 0.99 97 1015.3
20260507021705 12 102 3.2 6.4 0.05 1.63 0.99 97 1015.4
20260507021606 12 103 3.2 6.4 0.05 1.63 0.99 97 1015.3
20260507021505 12 107 3.2 6.4 0.05 1.63 0.99 97 1015.4
20260507021426 12 107 3.2 6.4 0.05 1.63 0.99 97 1015.4
20260507021305 12 106 3.2 6.4 0.03 1.60 0.97 97 1015.3
20260507021205 12 103 3.2 6.4 0.03 1.60 0.97 97 1015.2
20260507021105 12 97 3.2 6.4 0.03 1.60 0.97 97 1015.4
20260507021027 12 95 3.2 6.4 0.03 1.60 0.97 97 1015.4
20260507020905 12 93 3.2 6.4 0.03 1.60 0.97 97 1015.5
20260507020805 12 95 3.2 6.4 0.03 1.60 0.97 97 1015.4
20260507020705 12 96 3.2 6.4 0.03 1.60 0.97 97 1015.4
20260507020605 12 95 3.2 6.4 0.05 1.60 0.97 97 1015.3
20260507020505 12 94 3.2 6.4 0.05 1.60 0.97 97 1015.3
20260507020405 12 91 3.2 6.4 0.05 1.60 0.97 97 1015.3
20260507020305 12 94 3.2 6.4 0.05 1.60 0.97 97 1015.3
20260507020205 12 101 3.2 6.4 0.05 1.60 0.97 97 1015.3
20260507020105 12 100 3.2 6.4 0.05 1.60 0.97 97 1015.4
20260507020005 12 104 3.2 9.7 0.05 1.60 0.97 97 1015.5
20260507015905 12 115 3.2 9.7 0.05 1.60 0.97 97 1015.4
20260507015805 12 118 3.2 9.7 0.05 1.60 0.97 97 1015.2
20260507015705 12 122 3.2 9.7 0.05 1.60 0.97 97 1015.5
20260507015606 12 120 3.2 9.7 0.05 1.60 0.97 97 1015.2
20260507015506 12 115 3.2 9.7 0.05 1.60 0.97 97 1015.4
20260507015406 12 117 3.2 9.7 0.05 1.60 0.97 97 1015.4
20260507015306 12 116 3.2 9.7 0.05 1.60 0.97 97 1015.3
20260507015205 12 117 3.2 9.7 0.05 1.60 0.97 97 1015.4
20260507015126 12 117 3.2 9.7 0.05 1.60 0.97 97 1015.4
20260507015005 12 119 3.2 8.0 0.05 1.60 0.97 97 1015.2
20260507014905 12 118 3.2 8.0 0.05 1.60 0.97 97 1015.5
20260507014805 12 112 3.2 8.0 0.08 1.60 0.97 97 1015.2
20260507014726 12 109 3.2 8.0 0.08 1.60 0.97 97 1015.2
20260507014606 12 108 3.2 8.0 0.08 1.60 0.97 97 1015.4
20260507014505 12 110 3.2 8.0 0.08 1.60 0.97 97 1015.2
20260507014405 12 111 3.2 8.0 0.08 1.60 0.97 97 1015.5
20260507014326 12 112 3.2 8.0 0.08 1.60 0.97 97 1015.5
20260507014205 12 102 3.2 8.0 0.08 1.57 0.94 97 1015.3
20260507014105 12 105 3.2 8.0 0.08 1.57 0.94 97 1015.4
20260507014006 12 107 3.2 8.0 0.08 1.57 0.94 97 1015.3
20260507013926 12 107 3.2 8.0 0.08 1.57 0.94 97 1015.3
20260507013826 12 109 3.2 8.0 0.08 1.57 0.94 97 1015.3
20260507013727 12 108 3.2 6.4 0.10 1.57 0.94 97 1015.4
20260507013605 12 118 3.2 6.4 0.10 1.57 0.94 97 1015.4
20260507013505 12 113 1.6 6.4 0.10 1.57 0.94 97 1015.4
20260507013405 12 113 1.6 6.4 0.13 1.57 0.94 97 1015.4
20260507013305 12 123 1.6 6.4 0.13 1.57 0.94 97 1015.4
20260507013205 12 115 1.6 6.4 0.15 1.57 0.94 97 1015.4
20260507013105 12 117 1.6 6.4 0.15 1.57 0.94 97 1015.5
20260507013028 12 121 1.6 6.4 0.15 1.57 0.94 97 1015.5
20260507012905 12 137 1.6 6.4 0.18 1.57 0.94 97 1015.3
20260507012805 12 162 1.6 6.4 0.18 1.57 0.94 97 1015.3
20260507012704 12 163 3.2 6.4 0.18 1.57 0.94 97 1015.4
20260507012627 12 166 1.6 6.4 0.18 1.57 0.94 97 1015.4
20260507012526 12 172 3.2 6.4 0.20 1.57 0.94 97 1015.4
20260507012405 12 181 3.2 8.0 0.23 1.57 0.94 97 1015.3
20260507012306 12 178 3.2 8.0 0.23 1.57 0.94 97 1015.5
20260507012205 12 178 3.2 9.7 0.25 1.57 0.94 97 1015.6
20260507012105 12 171 3.2 9.7 0.25 1.57 0.94 97 1015.6
20260507012007 12 160 3.2 9.7 0.28 1.57 0.94 97 1015.4
20260507011905 12 148 3.2 9.7 0.28 1.57 0.94 97 1015.5
20260507011805 12 140 3.2 9.7 0.28 1.57 0.94 97 1015.3
20260507011705 12 135 3.2 9.7 0.30 1.57 0.94 97 1015.2
20260507011605 12 130 3.2 9.7 0.30 1.57 0.94 97 1015.5
20260507011506 12 124 3.2 9.7 0.30 1.57 0.94 97 1015.4
20260507011405 12 116 3.2 9.7 0.33 1.57 0.94 97 1015.2
20260507011326 12 113 3.2 9.7 0.33 1.57 0.94 97 1015.2
20260507011105 12 105 4.8 9.7 0.36 1.57 0.94 96 1015.2
20260507011005 12 109 4.8 9.7 0.38 1.57 0.94 96 1015.1
20260507010905 12 112 4.8 9.7 0.41 1.57 0.94 96 1015.1
20260507010805 12 114 4.8 9.7 0.41 1.57 0.94 96 1015.3
20260507010705 12 111 4.8 9.7 0.43 1.57 0.94 96 1015.2
20260507010606 12 114 4.8 9.7 0.46 1.55 0.94 96 1015.1
20260507010504 12 115 4.8 9.7 0.46 1.55 0.94 96 1015.1
20260507010404 12 116 4.8 9.7 0.46 1.55 0.94 96 1015.1
20260507010326 12 120 4.8 9.7 0.48 1.55 0.94 96 1015.1
20260507010205 12 118 4.8 9.7 0.51 1.55 0.94 96 1015.4
20260507010105 12 118 4.8 9.7 0.53 1.55 0.94 96 1015.2
20260507010005 12 113 4.8 9.7 0.56 1.55 0.94 96 1015.2
20260507005905 12 112 4.8 9.7 0.56 1.55 0.94 96 1015.1
20260507005805 12 117 4.8 11.3 0.58 1.55 0.94 96 1015.2
20260507005705 12 119 4.8 11.3 0.58 1.55 0.91 96 1015.3
20260507005608 12 116 4.8 11.3 0.61 1.55 0.91 96 1015.2
20260507005504 12 114 4.8 11.3 0.61 1.55 0.91 96 1015.4
20260507005405 12 119 4.8 11.3 0.61 1.55 0.91 96 1015.3
20260507005306 12 117 4.8 11.3 0.61 1.55 0.91 96 1015.4
20260507005205 12 118 4.8 11.3 0.64 1.52 0.89 96 1015.4
20260507005106 12 122 4.8 11.3 0.66 1.52 0.89 96 1015.5
20260507005004 12 121 4.8 12.9 0.66 1.52 0.89 95 1015.4
20260507004905 12 122 4.8 12.9 0.69 1.52 0.89 95 1015.4
20260507004805 12 119 4.8 12.9 0.69 1.52 0.89 95 1015.3
20260507004706 12 123 4.8 12.9 0.71 1.52 0.89 95 1015.6
20260507004605 12 129 4.8 12.9 0.71 1.52 0.89 95 1015.5
20260507004505 12 131 4.8 12.9 0.71 1.52 0.89 95 1015.7
20260507004405 12 131 4.8 12.9 0.71 1.52 0.89 95 1015.5
20260507004305 12 132 4.8 12.9 0.71 1.52 0.89 95 1015.3
20260507004228 12 133 4.8 14.5 0.71 1.50 0.89 95 1015.3
20260507004128 12 135 6.4 22.5 0.71 1.50 0.89 95 1015.4
20260507004005 12 136 6.4 22.5 0.71 1.50 0.86 95 1015.5
20260507003905 12 133 6.4 22.5 0.71 1.50 0.86 95 1015.7
20260507003804 12 131 8.0 22.5 0.71 1.50 0.86 95 1015.4
20260507003726 12 130 8.0 22.5 0.71 1.47 0.84 95 1015.4
20260507003605 12 123 8.0 22.5 0.69 1.47 0.84 95 1015.6
20260507003505 12 124 8.0 22.5 0.71 1.47 0.84 95 1015.4
20260507003404 12 125 8.0 22.5 0.71 1.45 0.84 95 1015.6
20260507003305 12 127 8.0 22.5 0.71 1.45 0.81 95 1015.7
20260507003204 12 127 8.0 22.5 0.69 1.45 0.81 95 1015.5
20260507003105 12 126 8.0 17.7 0.69 1.42 0.79 95 1015.5
20260507003005 12 128 8.0 17.7 0.69 1.42 0.79 95 1015.4
20260507002906 12 129 8.0 17.7 0.66 1.42 0.79 95 1015.4
20260507002806 12 129 8.0 17.7 0.66 1.40 0.79 95 1015.5
20260507002705 12 128 8.0 17.7 0.66 1.40 0.76 95 1015.3
20260507002605 12 128 8.0 17.7 0.66 1.40 0.76 95 1015.4
20260507002505 12 125 8.0 17.7 0.66 1.37 0.76 95 1015.4
20260507002405 12 124 8.0 17.7 0.66 1.35 0.71 95 1015.3
20260507002306 12 117 8.0 17.7 0.64 1.35 0.71 95 1015.4
20260507002204 12 113 8.0 17.7 0.64 1.32 0.71 95 1015.5
20260507002105 12 110 8.0 17.7 0.64 1.32 0.69 95 1015.4
20260507002005 12 106 8.0 17.7 0.61 1.30 0.66 95 1015.7
20260507001904 12 104 8.0 16.1 0.61 1.30 0.66 95 1015.6
20260507001805 12 105 6.4 16.1 0.61 1.27 0.66 95 1015.6
20260507001705 12 104 6.4 16.1 0.61 1.27 0.64 95 1015.4
20260507001605 12 106 6.4 16.1 0.61 1.27 0.64 95 1015.5
20260507001505 12 106 6.4 16.1 0.61 1.27 0.64 95 1015.6
20260507001405 12 107 6.4 16.1 0.58 1.24 0.61 95 1015.5
20260507001326 12 108 4.8 14.5 0.56 1.22 0.61 95 1015.5
20260507001205 12 111 4.8 14.5 0.56 1.22 0.58 95 1015.6
20260507001126 12 113 4.8 12.9 0.56 1.22 0.58 95 1015.6
20260507001005 12 123 3.2 12.9 0.51 1.17 0.56 95 1015.7
20260507000905 12 131 3.2 11.3 0.51 1.17 0.53 95 1015.7
20260507000805 12 148 3.2 9.7 0.51 1.17 0.53 95 1016.0
20260507000706 12 186 3.2 9.7 0.48 1.14 0.51 95 1015.8
20260507000605 12 220 3.2 9.7 0.46 1.12 0.48 95 1015.8
20260507000505 12 250 3.2 9.7 0.43 1.09 0.48 94 1015.9
20260507000427 12 259 3.2 9.7 0.43 1.09 0.48 94 1015.9
20260507000306 12 273 3.2 9.7 0.43 1.09 0.46 95 1016.0
20260507000205 12 277 3.2 9.7 0.41 1.07 0.43 95 1015.9
20260507000105 12 277 3.2 9.7 0.38 1.04 0.41 95 1016.1
20260507000005 12 276 4.8 9.7 0.33 0.99 0.38 95 1016.0
20260506235905 12 276 4.8 9.7 0.33 0.99 0.36 95 1015.9
20260506235804 12 277 4.8 9.7 0.30 0.97 0.33 95 1016.0
20260506235726 12 281 4.8 9.7 0.30 0.97 0.33 95 1016.0
20260506235626 12 280 4.8 9.7 0.28 0.94 0.33 95 1016.1
20260506235526 12 277 4.8 9.7 0.28 0.94 0.30 95 1016.0
20260506235426 12 278 4.8 9.7 0.28 0.94 0.30 95 1016.1
20260506235306 12 275 4.8 9.7 0.25 0.91 0.28 94 1016.1
20260506235204 12 272 4.8 9.7 0.23 0.89 0.28 94 1016.0
20260506235105 12 276 4.8 9.7 0.23 0.89 0.25 94 1016.0
20260506235004 12 280 4.8 9.7 0.20 0.86 0.23 94 1016.1
20260506234904 12 282 4.8 9.7 0.18 0.84 0.23 94 1016.1
20260506234805 12 284 4.8 9.7 0.18 0.84 0.20 94 1015.9
20260506234705 12 283 3.2 9.7 0.15 0.81 0.18 94 1016.1
20260506234605 12 281 3.2 9.7 0.15 0.81 0.18 94 1016.0
20260506234505 12 280 3.2 9.7 0.15 0.81 0.18 94 1015.9
20260506234405 12 279 3.2 9.7 0.15 0.81 0.18 94 1016.0
20260506234306 12 276 3.2 9.7 0.15 0.79 0.18 94 1016.0
20260506234204 12 277 3.2 9.7 0.15 0.79 0.18 94 1016.0
20260506234105 12 271 3.2 9.7 0.15 0.79 0.18 94 1015.8
20260506234005 12 266 3.2 9.7 0.13 0.79 0.15 94 1016.1
20260506233905 12 264 3.2 9.7 0.13 0.79 0.15 94 1015.8
20260506233826 12 259 3.2 9.7 0.13 0.79 0.15 94 1015.8
20260506233705 12 253 3.2 9.7 0.13 0.79 0.15 94 1015.9
20260506233605 12 244 3.2 9.7 0.13 0.79 0.15 94 1015.9
20260506233505 12 246 3.2 9.7 0.10 0.76 0.13 94 1015.9
20260506233404 12 240 3.2 9.7 0.10 0.76 0.13 94 1015.7
20260506233305 12 233 3.2 9.7 0.10 0.76 0.13 94 1016.0
20260506233205 13 214 3.2 9.7 0.10 0.76 0.13 94 1015.6
20260506233105 13 215 3.2 9.7 0.08 0.74 0.10 94 1015.7
20260506233005 13 202 3.2 9.7 0.08 0.74 0.10 94 1015.7
20260506232905 13 206 3.2 9.7 0.08 0.74 0.10 94 1015.6
20260506232804 13 211 3.2 9.7 0.08 0.74 0.10 94 1015.8
20260506232726 13 206 3.2 9.7 0.10 0.74 0.10 94 1015.8
20260506232626 13 217 3.2 9.7 0.10 0.74 0.10 94 1015.7
20260506232526 13 217 3.2 9.7 0.08 0.71 0.10 94 1015.7
20260506232406 13 213 3.2 9.7 0.05 0.71 0.08 94 1015.7
20260506232306 13 215 3.2 9.7 0.05 0.71 0.08 94 1015.7
20260506232205 13 220 3.2 9.7 0.05 0.69 0.05 94 1015.7
20260506232125 13 216 3.2 9.7 0.05 0.69 0.05 94 1015.7
20260506232027 13 218 3.2 9.7 0.05 0.69 0.05 94 1015.7
20260506231905 13 205 3.2 9.7 0.05 0.69 0.05 94 1015.7
20260506231805 13 184 3.2 9.7 0.03 0.66 0.05 93 1015.7
20260506231705 13 178 3.2 9.7 0.03 0.66 0.05 93 1015.6
20260506231607 13 172 3.2 9.7 0.03 0.66 0.05 93 1015.6
20260506231506 13 173 3.2 9.7 0.03 0.66 0.03 93 1015.5
20260506231405 13 181 3.2 9.7 0.03 0.66 0.03 93 1015.5
20260506231305 13 180 3.2 9.7 0.03 0.66 0.03 93 1015.6
20260506231205 13 184 3.2 9.7 0.03 0.66 0.03 93 1015.6
20260506231126 13 190 3.2 9.7 0.03 0.66 0.03 93 1015.6
20260506231026 13 190 3.2 9.7 0.03 0.66 0.03 93 1015.6
20260506230926 13 190 3.2 9.7 0.03 0.66 0.03 93 1015.3
20260506230805 13 200 3.2 9.7 0.03 0.66 0.03 93 1015.4
20260506230705 13 202 3.2 9.7 0.03 0.66 0.03 93 1015.7
20260506230605 13 207 3.2 9.7 0.03 0.66 0.03 93 1015.6
20260506230505 13 218 3.2 9.7 0.03 0.66 0.03 93 1015.2
20260506230405 13 206 3.2 9.7 0.03 0.66 0.03 93 1015.4
20260506230326 13 208 3.2 9.7 0.03 0.66 0.03 93 1015.4
20260506230205 13 201 3.2 9.7 0.03 0.66 0.03 93 1015.3
20260506230105 13 191 3.2 8.0 0.03 0.66 0.03 93 1015.4
20260506230005 13 191 3.2 8.0 0.03 0.66 0.03 93 1015.5
20260506225905 13 187 3.2 8.0 0.03 0.66 0.03 93 1015.4
20260506225825 13 178 3.2 8.0 0.03 0.66 0.03 93 1015.4
20260506225705 13 181 3.2 8.0 0.03 0.66 0.03 93 1015.6
20260506225605 13 197 3.2 8.0 0.05 0.66 0.03 94 1015.3
20260506225504 13 192 3.2 8.0 0.05 0.66 0.03 94 1015.3
20260506225426 13 204 3.2 8.0 0.05 0.66 0.03 94 1015.3
20260506225306 13 225 3.2 8.0 0.05 0.66 0.03 94 1015.4
20260506225205 13 235 3.2 8.0 0.05 0.66 0.03 94 1015.6
20260506225105 13 244 3.2 8.0 0.05 0.66 0.03 94 1015.6
20260506225005 13 246 3.2 8.0 0.05 0.66 0.03 94 1015.6
20260506224904 13 240 3.2 8.0 0.05 0.66 0.03 94 1015.4
20260506224826 13 248 3.2 8.0 0.05 0.66 0.03 94 1015.4
20260506224705 13 245 3.2 8.0 0.05 0.66 0.03 94 1015.7
20260506224605 13 247 3.2 8.0 0.05 0.66 0.03 94 1015.8
20260506224505 13 250 3.2 8.0 0.05 0.66 0.03 94 1015.6
20260506224426 13 241 3.2 8.0 0.05 0.66 0.03 94 1015.6
20260506224305 13 237 3.2 8.0 0.08 0.66 0.03 94 1015.5
20260506224205 13 233 3.2 8.0 0.08 0.66 0.03 94 1015.4
20260506224105 13 231 3.2 8.0 0.08 0.66 0.03 94 1015.5
20260506224005 13 230 3.2 8.0 0.08 0.66 0.03 94 1015.5
20260506223905 13 236 3.2 8.0 0.08 0.66 0.03 94 1015.6
20260506223804 13 238 3.2 8.0 0.08 0.66 0.03 95 1015.5
20260506223705 13 238 3.2 8.0 0.10 0.66 0.03 95 1015.5
20260506223605 13 236 3.2 8.0 0.10 0.66 0.03 95 1015.3
20260506223506 13 232 3.2 8.0 0.10 0.66 0.03 95 1015.4
20260506223405 13 234 3.2 8.0 0.10 0.66 0.03 95 1015.6
20260506223305 13 239 3.2 8.0 0.10 0.66 0.03 95 1015.5
20260506223206 13 241 3.2 8.0 0.10 0.66 0.03 95 1015.4
20260506223104 13 235 3.2 8.0 0.10 0.66 0.03 95 1015.4
20260506223005 13 232 3.2 8.0 0.10 0.66 0.03 95 1015.4
20260506222904 13 229 3.2 8.0 0.10 0.66 0.03 95 1015.5
20260506222804 13 216 3.2 8.0 0.10 0.66 0.03 95 1015.5
20260506222705 13 197 3.2 8.0 0.08 0.64 0.00 95 1015.5
20260506222605 13 185 3.2 8.0 0.08 0.64 0.00 95 1015.5
20260506222505 13 174 3.2 8.0 0.08 0.64 0.00 95 1015.6
20260506222405 13 169 3.2 8.0 0.08 0.64 0.00 95 1015.5
20260506222306 13 164 3.2 8.0 0.08 0.64 0.00 95 1015.5
20260506222205 13 159 3.2 8.0 0.08 0.64 0.00 95 1015.5
20260506222105 13 155 3.2 6.4 0.08 0.64 0.00 95 1015.5
20260506222027 13 172 3.2 6.4 0.08 0.64 0.00 95 1015.5
20260506221905 13 182 3.2 6.4 0.10 0.64 0.00 95 1015.4
20260506221826 13 189 3.2 6.4 0.10 0.64 0.00 95 1015.4
20260506221726 13 201 3.2 6.4 0.10 0.64 0.00 95 1015.5
20260506221604 13 223 1.6 6.4 0.10 0.64 0.00 95 1015.4
20260506221505 13 234 1.6 6.4 0.10 0.64 0.00 95 1015.5
20260506221405 13 246 1.6 6.4 0.10 0.64 0.00 95 1015.5
20260506221305 13 235 3.2 6.4 0.10 0.64 0.00 95 1015.5
20260506221205 13 235 3.2 6.4 0.10 0.64 0.00 95 1015.5
20260506221106 13 233 3.2 6.4 0.10 0.64 0.00 95 1015.6
20260506221005 13 238 3.2 8.0 0.10 0.64 0.00 95 1015.5
20260506220906 13 236 3.2 8.0 0.10 0.64 0.00 95 1015.6
20260506220825 13 233 3.2 8.0 0.10 0.64 0.00 95 1015.6
20260506220704 13 236 3.2 8.0 0.13 0.64 0.00 95 1015.7
20260506220604 13 243 3.2 8.0 0.13 0.64 0.00 95 1015.6
20260506220505 13 236 3.2 8.0 0.13 0.64 0.00 95 1015.5
20260506220405 13 227 3.2 8.0 0.13 0.64 0.00 95 1015.5
20260506220305 13 230 3.2 8.0 0.13 0.64 0.00 95 1015.2
20260506220204 13 224 3.2 8.0 0.13 0.64 0.00 95 1015.5
20260506220105 13 210 3.2 8.0 0.13 0.64 0.00 95 1015.6
20260506220007 13 184 3.2 6.4 0.15 0.64 0.00 95 1015.5
20260506215906 13 167 3.2 6.4 0.15 0.64 0.64 95 1015.7
20260506215805 13 153 3.2 6.4 0.15 0.64 0.64 95 1015.4
20260506215704 13 148 3.2 6.4 0.15 0.64 0.64 95 1015.4
20260506215606 13 145 3.2 6.4 0.15 0.61 0.61 95 1015.5
20260506215505 13 133 3.2 6.4 0.15 0.61 0.61 95 1015.5
20260506215426 13 134 3.2 6.4 0.18 0.61 0.61 95 1015.5
20260506215306 13 133 3.2 6.4 0.18 0.61 0.61 95 1015.5
20260506215205 13 139 3.2 8.0 0.18 0.61 0.61 95 1015.4
20260506215105 13 141 3.2 8.0 0.18 0.61 0.61 95 1015.3
20260506215007 13 144 3.2 8.0 0.18 0.61 0.61 95 1015.5
20260506214905 13 144 3.2 8.0 0.18 0.61 0.61 95 1015.4
20260506214804 13 166 3.2 8.0 0.18 0.61 0.61 95 1015.4
20260506214704 13 174 3.2 8.0 0.18 0.61 0.61 95 1015.5
20260506214604 13 184 3.2 8.0 0.18 0.61 0.61 95 1015.6
20260506214505 13 182 3.2 8.0 0.18 0.61 0.61 95 1015.7
20260506214405 13 182 3.2 8.0 0.18 0.61 0.61 95 1015.6
20260506214305 13 195 3.2 8.0 0.15 0.58 0.58 95 1015.5
20260506214204 13 190 3.2 8.0 0.15 0.58 0.58 95 1015.5
20260506214126 13 187 3.2 8.0 0.18 0.58 0.58 95 1015.5
20260506214026 13 176 3.2 8.0 0.18 0.58 0.58 95 1015.6
20260506213926 13 178 3.2 8.0 0.18 0.58 0.58 95 1015.6
20260506213805 13 172 3.2 6.4 0.18 0.58 0.58 95 1015.6
20260506213726 13 169 3.2 6.4 0.18 0.56 0.58 95 1015.6
20260506213605 13 176 3.2 8.0 0.18 0.56 0.56 94 1015.6
20260506213505 13 179 3.2 8.0 0.18 0.56 0.56 94 1015.7
20260506213405 13 185 3.2 8.0 0.18 0.56 0.56 95 1015.6
20260506213305 13 173 3.2 8.0 0.18 0.56 0.56 95 1015.6
20260506213226 13 172 3.2 8.0 0.18 0.56 0.56 95 1015.6
20260506213105 13 167 3.2 8.0 0.18 0.56 0.56 95 1015.7
20260506213026 13 168 3.2 8.0 0.18 0.56 0.56 95 1015.7
20260506212905 13 166 3.2 8.0 0.18 0.56 0.56 95 1015.5
20260506212805 13 170 3.2 8.0 0.18 0.56 0.56 95 1015.8
20260506212705 13 166 3.2 8.0 0.18 0.56 0.56 95 1015.6
20260506212626 13 160 3.2 8.0 0.18 0.56 0.56 95 1015.6
20260506212505 13 152 3.2 8.0 0.18 0.56 0.56 95 1015.5
20260506212405 13 144 3.2 8.0 0.18 0.56 0.56 95 1015.5
20260506212326 13 145 3.2 8.0 0.18 0.56 0.56 95 1015.5
20260506212204 13 143 3.2 8.0 0.18 0.56 0.56 94 1015.6
20260506212104 13 146 3.2 8.0 0.18 0.56 0.56 94 1015.6
20260506212005 13 152 3.2 8.0 0.18 0.56 0.56 94 1015.6
20260506211905 13 155 3.2 8.0 0.18 0.56 0.56 94 1015.6
20260506211806 13 147 3.2 8.0 0.18 0.56 0.56 94 1015.6
20260506211705 13 145 3.2 8.0 0.18 0.56 0.56 94 1015.6
20260506211605 13 144 3.2 8.0 0.18 0.56 0.56 94 1015.8
20260506211526 13 147 3.2 8.0 0.18 0.56 0.56 94 1015.8
20260506211425 13 147 3.2 8.0 0.18 0.56 0.56 94 1015.6
20260506211304 13 142 3.2 8.0 0.18 0.56 0.56 94 1015.7
20260506211204 13 141 3.2 8.0 0.18 0.56 0.56 94 1015.6
20260506211105 13 133 3.2 8.0 0.18 0.53 0.53 94 1015.6
20260506211005 13 129 3.2 8.0 0.18 0.53 0.53 94 1015.7
20260506210905 13 122 3.2 8.0 0.18 0.53 0.53 93 1015.8
20260506210805 13 119 3.2 8.0 0.18 0.53 0.53 93 1015.7
20260506210705 13 114 3.2 8.0 0.15 0.51 0.51 93 1015.7
20260506210605 13 116 3.2 8.0 0.15 0.51 0.51 93 1015.7
20260506210505 13 113 3.2 8.0 0.15 0.51 0.51 93 1015.7
20260506210405 13 113 3.2 8.0 0.15 0.51 0.51 93 1015.7
20260506210305 13 117 3.2 8.0 0.13 0.51 0.51 93 1015.6
20260506210204 13 122 3.2 8.0 0.13 0.51 0.51 93 1015.8
20260506210104 13 127 3.2 8.0 0.13 0.51 0.51 93 1015.4
20260506210005 13 134 3.2 8.0 0.13 0.48 0.48 93 1015.5
20260506205926 13 133 3.2 8.0 0.13 0.48 0.48 93 1015.5
20260506205805 13 134 3.2 8.0 0.10 0.48 0.48 93 1015.7
20260506205705 13 140 3.2 8.0 0.10 0.48 0.48 93 1015.7
20260506205604 13 139 4.8 8.0 0.10 0.46 0.46 93 1015.5
20260506205505 13 140 3.2 8.0 0.10 0.46 0.46 93 1015.7
20260506205405 13 140 4.8 8.0 0.08 0.46 0.46 93 1015.8
20260506205306 13 143 3.2 8.0 0.08 0.46 0.46 93 1015.6
20260506205205 13 141 3.2 8.0 0.08 0.43 0.43 93 1015.6
20260506205105 13 135 3.2 8.0 0.08 0.43 0.43 93 1015.7
20260506205004 13 131 4.8 9.7 0.08 0.43 0.43 94 1015.9
20260506204904 13 130 4.8 9.7 0.05 0.43 0.43 94 1015.9
20260506204805 13 130 3.2 9.7 0.05 0.43 0.43 93 1015.6
20260506204705 13 125 3.2 9.7 0.05 0.43 0.43 93 1015.6
20260506204605 13 126 3.2 9.7 0.05 0.43 0.43 93 1015.7
20260506204505 13 131 3.2 9.7 0.05 0.43 0.43 94 1015.6
20260506204425 13 134 3.2 9.7 0.05 0.43 0.43 93 1015.6
20260506204305 13 133 3.2 9.7 0.05 0.43 0.43 93 1015.9
20260506204225 13 134 3.2 9.7 0.05 0.43 0.43 93 1015.9
20260506204105 13 134 3.2 9.7 0.03 0.41 0.41 93 1015.6
20260506204004 13 133 3.2 8.0 0.03 0.41 0.41 93 1015.8
20260506203925 13 135 3.2 8.0 0.03 0.41 0.41 93 1015.8
20260506203805 13 141 3.2 9.7 0.03 0.41 0.41 93 1015.7
20260506203705 13 141 4.8 9.7 0.03 0.41 0.41 93 1015.8
20260506203625 13 141 4.8 9.7 0.03 0.41 0.41 93 1015.8
20260506203505 13 134 4.8 9.7 0.03 0.38 0.38 93 1015.8
20260506203406 13 129 4.8 9.7 0.03 0.38 0.38 93 1015.8
20260506203305 13 126 4.8 9.7 0.03 0.38 0.38 92 1015.8
20260506203205 13 125 4.8 9.7 0.03 0.38 0.38 92 1015.7
20260506203126 13 122 4.8 9.7 0.03 0.38 0.38 92 1015.7
20260506203005 13 123 4.8 9.7 0.03 0.38 0.38 92 1015.7
20260506202904 13 120 4.8 12.9 0.03 0.38 0.38 92 1015.7
20260506202804 13 122 4.8 12.9 0.03 0.38 0.38 92 1015.7
20260506202704 13 123 4.8 12.9 0.03 0.38 0.38 92 1015.7
20260506202606 14 119 4.8 12.9 0.03 0.38 0.38 92 1015.8
20260506202505 14 122 4.8 12.9 0.03 0.38 0.38 92 1015.7
20260506202405 14 122 4.8 12.9 0.03 0.38 0.38 92 1015.6
20260506202306 14 122 4.8 14.5 0.03 0.38 0.38 92 1015.7
20260506202205 14 121 4.8 14.5 0.00 0.38 0.38 92 1015.6
20260506202105 14 119 4.8 14.5 0.00 0.38 0.38 92 1015.6
20260506202005 14 117 4.8 14.5 0.00 0.38 0.38 92 1015.5
20260506201926 14 119 4.8 14.5 0.00 0.38 0.38 93 1015.5
20260506201805 14 114 4.8 14.5 0.00 0.38 0.38 93 1015.6
20260506201705 14 113 4.8 14.5 0.00 0.38 0.38 93 1015.7
20260506201627 14 115 4.8 14.5 0.00 0.38 0.38 93 1015.7
20260506201526 14 113 4.8 14.5 0.00 0.38 0.38 93 1015.7
20260506201405 14 108 4.8 14.5 0.00 0.38 0.38 94 1015.5
20260506201306 14 107 4.8 9.7 0.00 0.38 0.38 94 1015.5
20260506201204 14 108 4.8 8.0 0.00 0.38 0.38 94 1015.5
20260506201105 14 109 4.8 8.0 0.00 0.38 0.38 94 1015.5
20260506201004 14 107 4.8 8.0 0.00 0.38 0.38 94 1015.4
20260506200905 14 104 3.2 8.0 0.00 0.38 0.38 94 1015.3
20260506200806 14 100 3.2 8.0 0.00 0.38 0.38 94 1015.5
20260506200704 14 98 3.2 8.0 0.03 0.38 0.38 94 1015.5
20260506200605 14 97 3.2 8.0 0.03 0.38 0.38 94 1015.5
20260506200505 14 99 3.2 8.0 0.03 0.38 0.38 94 1015.4
20260506200405 14 102 3.2 8.0 0.03 0.38 0.38 94 1015.5
20260506200305 14 102 3.2 8.0 0.03 0.38 0.38 94 1015.3
20260506200205 14 103 3.2 8.0 0.03 0.38 0.38 94 1015.5
20260506200106 14 105 3.2 8.0 0.03 0.38 0.38 94 1015.5
20260506200005 14 103 3.2 8.0 0.03 0.38 0.38 94 1015.4
20260506195905 14 105 3.2 8.0 0.03 0.38 0.38 94 1015.4
20260506195805 14 105 3.2 8.0 0.03 0.38 0.38 94 1015.4
20260506195705 14 103 3.2 8.0 0.03 0.38 0.38 94 1015.5
20260506195627 14 103 3.2 8.0 0.03 0.38 0.38 94 1015.5
20260506195525 14 104 3.2 8.0 0.03 0.38 0.38 94 1015.3
20260506195405 14 106 3.2 6.4 0.03 0.38 0.38 94 1015.4
20260506195326 14 108 3.2 6.4 0.03 0.38 0.38 94 1015.4
20260506195205 14 109 3.2 6.4 0.03 0.38 0.38 94 1015.4
20260506195104 14 109 3.2 6.4 0.03 0.38 0.38 94 1015.3
20260506195004 14 116 3.2 6.4 0.03 0.38 0.38 94 1015.3
20260506194925 14 115 3.2 6.4 0.03 0.38 0.38 94 1015.3
20260506194805 14 117 3.2 6.4 0.03 0.38 0.38 94 1015.4
20260506194704 14 117 3.2 6.4 0.03 0.38 0.38 95 1015.4
20260506194605 14 117 3.2 6.4 0.03 0.38 0.38 94 1015.4
20260506194527 14 116 3.2 6.4 0.03 0.38 0.38 95 1015.4
20260506194406 14 114 3.2 8.0 0.03 0.38 0.38 95 1015.3
20260506194306 14 118 3.2 8.0 0.03 0.38 0.38 95 1015.5
20260506194226 14 115 3.2 8.0 0.03 0.38 0.38 95 1015.5
20260506194105 14 113 3.2 8.0 0.03 0.38 0.38 95 1015.2
20260506194006 14 113 3.2 8.0 0.03 0.38 0.38 95 1015.2
20260506193905 14 113 3.2 8.0 0.03 0.38 0.38 95 1015.3
20260506193825 14 116 3.2 9.7 0.03 0.38 0.38 95 1015.3
20260506193704 14 116 4.8 9.7 0.03 0.38 0.38 95 1015.4
20260506193604 14 114 4.8 9.7 0.03 0.38 0.38 95 1015.4
20260506193505 14 110 4.8 9.7 0.03 0.38 0.38 95 1015.3
20260506193405 14 110 4.8 9.7 0.03 0.38 0.38 95 1015.2
20260506193305 14 108 4.8 9.7 0.03 0.38 0.38 95 1015.3
20260506193205 14 111 4.8 9.7 0.03 0.38 0.38 95 1015.4
20260506193126 14 109 4.8 9.7 0.03 0.38 0.38 95 1015.4
20260506193005 14 106 4.8 9.7 0.03 0.38 0.38 95 1015.3
20260506192905 14 107 4.8 9.7 0.03 0.38 0.38 95 1015.4
20260506192805 14 106 4.8 9.7 0.03 0.38 0.38 95 1015.4
20260506192705 14 108 4.8 9.7 0.03 0.38 0.38 95 1015.3
20260506192626 14 108 4.8 9.7 0.03 0.38 0.38 95 1015.3
20260506192506 14 113 4.8 9.7 0.05 0.38 0.38 95 1015.2
20260506192406 14 113 4.8 9.7 0.05 0.38 0.38 95 1015.3
20260506192306 14 110 4.8 9.7 0.05 0.38 0.38 95 1015.4
20260506192206 14 109 4.8 9.7 0.05 0.38 0.38 95 1015.3
20260506192104 14 112 4.8 9.7 0.05 0.38 0.38 95 1015.2
20260506192005 14 113 4.8 9.7 0.05 0.38 0.38 95 1015.4
20260506191905 14 114 4.8 9.7 0.05 0.38 0.38 95 1015.1
20260506191827 14 109 3.2 8.0 0.05 0.38 0.38 95 1015.1
20260506191705 14 109 3.2 8.0 0.05 0.38 0.38 95 1015.1
20260506191605 14 107 3.2 8.0 0.05 0.38 0.38 95 1015.2
20260506191506 14 105 3.2 9.7 0.05 0.38 0.38 95 1015.2
20260506191405 14 105 3.2 9.7 0.05 0.38 0.38 95 1015.3
20260506191305 14 103 4.8 11.3 0.05 0.38 0.38 95 1015.3
20260506191206 14 105 4.8 11.3 0.05 0.38 0.38 95 1015.3
20260506191105 14 102 4.8 11.3 0.05 0.36 0.36 96 1015.3
20260506191005 14 99 4.8 11.3 0.05 0.36 0.36 96 1015.2
20260506190905 14 96 4.8 11.3 0.05 0.36 0.36 96 1015.2
20260506190805 14 98 4.8 11.3 0.05 0.36 0.36 96 1015.2
20260506190705 14 98 4.8 11.3 0.03 0.33 0.33 96 1015.3
20260506190606 14 96 4.8 11.3 0.03 0.33 0.33 96 1015.3
20260506190505 14 95 4.8 11.3 0.03 0.33 0.33 96 1015.1
20260506190405 14 93 4.8 11.3 0.03 0.33 0.33 96 1015.1
20260506190305 14 96 3.2 9.7 0.03 0.33 0.33 95 1015.2
20260506190205 14 94 3.2 9.7 0.05 0.33 0.33 95 1015.2
20260506190126 14 97 3.2 9.7 0.05 0.33 0.33 95 1015.2
20260506190026 14 95 3.2 9.7 0.05 0.33 0.33 95 1015.2
20260506185904 14 93 3.2 9.7 0.05 0.33 0.33 95 1015.1
20260506185805 14 94 3.2 9.7 0.05 0.33 0.33 95 1015.1
20260506185705 14 93 3.2 8.0 0.05 0.33 0.33 95 1015.1
20260506185605 14 97 3.2 8.0 0.05 0.33 0.33 95 1015.1
20260506185505 14 101 3.2 8.0 0.08 0.33 0.33 95 1015.2
20260506185405 14 102 3.2 8.0 0.08 0.33 0.33 95 1015.2
20260506185306 14 103 3.2 8.0 0.08 0.33 0.33 95 1015.2
20260506185227 14 105 3.2 8.0 0.08 0.33 0.33 95 1015.2
20260506185105 14 100 3.2 8.0 0.10 0.33 0.33 95 1015.1
20260506185004 14 99 3.2 8.0 0.10 0.33 0.33 95 1015.2
20260506184904 14 103 3.2 8.0 0.10 0.33 0.33 95 1015.0
20260506184805 14 104 4.8 9.7 0.10 0.33 0.33 95 1015.1
20260506184705 14 104 4.8 9.7 0.10 0.33 0.33 95 1015.3
20260506184606 14 103 4.8 9.7 0.13 0.33 0.33 95 1015.2
20260506184526 14 102 4.8 9.7 0.13 0.33 0.33 95 1015.2
20260506184404 14 98 4.8 16.1 0.13 0.33 0.33 95 1014.9
20260506184304 14 99 4.8 16.1 0.13 0.33 0.33 95 1014.9
20260506184205 14 99 4.8 16.1 0.13 0.33 0.33 95 1015.0
20260506184105 14 101 4.8 16.1 0.13 0.33 0.33 95 1014.9
20260506184005 14 101 4.8 16.1 0.13 0.33 0.33 95 1015.1
20260506183905 14 102 4.8 16.1 0.13 0.33 0.33 95 1015.1
20260506183806 14 101 4.8 16.1 0.13 0.33 0.33 95 1015.1
20260506183704 14 101 4.8 16.1 0.13 0.33 0.33 95 1015.0
20260506183604 14 99 4.8 16.1 0.13 0.33 0.33 95 1015.0
20260506183504 14 100 4.8 16.1 0.13 0.33 0.33 95 1015.0
20260506183404 14 105 4.8 11.3 0.13 0.33 0.33 95 1015.1
20260506183304 14 107 4.8 9.7 0.13 0.33 0.33 95 1014.9
20260506183205 14 110 4.8 9.7 0.13 0.33 0.33 95 1014.9
20260506183125 14 112 4.8 9.7 0.13 0.33 0.33 95 1014.9
20260506183005 14 115 4.8 9.7 0.13 0.33 0.33 95 1014.8
20260506182904 14 116 4.8 9.7 0.13 0.33 0.33 95 1014.8
20260506182805 14 117 4.8 9.7 0.13 0.33 0.33 95 1014.7
20260506182705 14 116 4.8 9.7 0.13 0.33 0.33 95 1014.8
20260506182605 14 118 4.8 9.7 0.13 0.33 0.33 95 1014.8
20260506182505 14 118 4.8 9.7 0.13 0.33 0.33 95 1014.8
20260506182405 14 113 4.8 9.7 0.13 0.33 0.33 95 1014.9
20260506182306 14 111 4.8 11.3 0.13 0.33 0.33 95 1014.8
20260506182205 14 111 4.8 11.3 0.13 0.33 0.33 95 1014.8
20260506182105 14 111 4.8 12.9 0.13 0.33 0.33 95 1014.8
20260506182005 14 110 6.4 12.9 0.13 0.33 0.33 95 1014.9
20260506181905 14 108 6.4 12.9 0.13 0.33 0.33 95 1014.9
20260506181805 14 110 6.4 16.1 0.13 0.33 0.33 95 1014.8
20260506181705 14 110 6.4 16.1 0.13 0.33 0.33 94 1014.8
20260506181604 14 110 6.4 16.1 0.13 0.33 0.33 94 1014.8
20260506181526 14 109 6.4 16.1 0.13 0.33 0.33 94 1014.8
20260506181404 14 114 6.4 16.1 0.10 0.33 0.33 94 1014.9
20260506181325 14 113 6.4 16.1 0.10 0.33 0.33 94 1014.9
20260506181205 14 118 8.0 16.1 0.10 0.33 0.33 95 1014.7
20260506181104 14 116 6.4 16.1 0.10 0.33 0.33 94 1014.6
20260506181004 14 118 6.4 16.1 0.10 0.33 0.33 94 1014.7
20260506180904 14 117 6.4 16.1 0.10 0.33 0.33 94 1014.8
20260506180826 14 115 6.4 16.1 0.10 0.30 0.33 94 1014.8
20260506180727 14 117 6.4 16.1 0.10 0.30 0.30 94 1014.9
20260506180604 14 120 6.4 16.1 0.10 0.30 0.30 94 1014.8
20260506180505 14 120 6.4 16.1 0.10 0.30 0.30 94 1014.7
20260506180404 14 121 6.4 16.1 0.10 0.30 0.30 94 1014.7
20260506180306 14 123 6.4 14.5 0.10 0.30 0.30 94 1014.8
20260506180204 14 122 6.4 14.5 0.10 0.30 0.30 94 1014.7
20260506180104 14 123 6.4 14.5 0.10 0.30 0.30 93 1014.8
20260506180025 14 122 6.4 14.5 0.10 0.30 0.30 93 1014.8
20260506175905 14 120 6.4 12.9 0.10 0.30 0.30 93 1014.9
20260506175825 15 119 6.4 12.9 0.10 0.30 0.30 93 1014.9
20260506175704 15 117 6.4 12.9 0.08 0.28 0.28 93 1014.7
20260506175605 15 115 6.4 12.9 0.08 0.28 0.28 93 1014.9
20260506175526 15 112 4.8 12.9 0.05 0.28 0.28 93 1014.9
20260506175405 15 114 4.8 11.3 0.05 0.28 0.28 92 1014.8
20260506175306 15 110 4.8 11.3 0.05 0.25 0.25 92 1014.8
20260506175205 15 105 4.8 11.3 0.05 0.25 0.25 92 1014.7
20260506175126 15 104 4.8 11.3 0.05 0.25 0.25 92 1014.7
20260506175027 15 103 4.8 9.7 0.05 0.25 0.25 91 1014.8
20260506174904 15 106 4.8 9.7 0.05 0.25 0.25 91 1014.8
20260506174805 15 110 4.8 9.7 0.03 0.23 0.23 91 1014.9
20260506174726 15 111 4.8 11.3 0.03 0.23 0.23 91 1014.9
20260506174625 15 114 4.8 11.3 0.00 0.23 0.23 91 1014.8
20260506174505 15 114 4.8 11.3 0.00 0.23 0.23 91 1014.9
20260506174405 15 111 4.8 11.3 0.00 0.23 0.23 90 1014.7
20260506174305 15 112 4.8 11.3 0.00 0.20 0.20 90 1014.9
20260506174226 15 114 4.8 11.3 0.00 0.20 0.20 90 1014.9
20260506174125 15 117 4.8 11.3 0.00 0.20 0.20 90 1014.7
20260506174004 15 120 4.8 14.5 0.00 0.20 0.20 89 1015.0
20260506173905 15 119 4.8 14.5 0.00 0.20 0.20 89 1014.8
20260506173805 15 116 4.8 14.5 0.00 0.20 0.20 89 1014.8
20260506173726 15 115 4.8 14.5 0.00 0.20 0.20 88 1014.8
20260506173604 15 116 6.4 14.5 0.00 0.20 0.20 88 1014.7
20260506173504 15 115 6.4 14.5 0.00 0.20 0.20 88 1014.5
20260506173404 15 113 6.4 14.5 0.00 0.20 0.20 88 1014.7
20260506173305 15 112 6.4 14.5 0.00 0.20 0.20 87 1014.6
20260506173206 15 111 4.8 14.5 0.00 0.20 0.20 88 1014.6
20260506173104 16 110 4.8 14.5 0.00 0.20 0.20 87 1014.7
20260506173005 16 108 4.8 12.9 0.00 0.20 0.20 87 1014.7
20260506172904 16 109 4.8 12.9 0.00 0.20 0.20 87 1014.8
20260506172804 16 115 4.8 12.9 0.00 0.20 0.20 87 1014.8
20260506172704 16 117 4.8 12.9 0.00 0.20 0.20 86 1015.0
20260506172605 16 115 4.8 12.9 0.00 0.20 0.20 86 1014.6
20260506172505 16 117 4.8 12.9 0.00 0.20 0.20 86 1014.7
20260506172405 16 114 4.8 12.9 0.00 0.20 0.20 86 1014.9
20260506172307 16 111 4.8 12.9 0.00 0.20 0.20 86 1014.8
20260506172205 16 110 4.8 12.9 0.00 0.20 0.20 86 1014.7
20260506172105 16 106 4.8 12.9 0.00 0.20 0.20 86 1014.7
20260506172026 16 109 4.8 12.9 0.00 0.20 0.20 86 1014.7
20260506171905 16 113 4.8 14.5 0.00 0.20 0.20 86 1014.7
20260506171805 16 113 4.8 14.5 0.00 0.20 0.20 85 1014.6
20260506171705 16 113 4.8 14.5 0.00 0.20 0.20 85 1014.7
20260506171605 16 118 4.8 14.5 0.00 0.20 0.20 85 1014.8
20260506171505 16 116 4.8 14.5 0.00 0.20 0.20 85 1014.8
20260506171406 16 121 4.8 14.5 0.00 0.20 0.20 85 1014.8
20260506171305 16 126 6.4 14.5 0.00 0.20 0.20 85 1014.6
20260506171205 16 129 6.4 14.5 0.00 0.20 0.20 85 1014.8
20260506171104 16 127 6.4 14.5 0.00 0.20 0.20 85 1014.8
20260506171026 16 126 6.4 16.1 0.00 0.20 0.20 85 1014.8
20260506170905 16 121 6.4 16.1 0.00 0.20 0.20 85 1014.6
20260506170825 16 116 6.4 16.1 0.00 0.20 0.20 85 1014.6
20260506170704 16 115 6.4 16.1 0.00 0.20 0.20 85 1014.7
20260506170604 16 114 6.4 16.1 0.00 0.20 0.20 85 1014.8
20260506170504 16 111 6.4 16.1 0.00 0.20 0.20 85 1014.7
20260506170405 16 110 6.4 16.1 0.00 0.20 0.20 85 1014.7
20260506170326 16 109 6.4 16.1 0.00 0.20 0.20 84 1014.7
20260506170205 16 108 6.4 16.1 0.00 0.20 0.20 84 1014.8
20260506170104 16 111 6.4 16.1 0.00 0.20 0.20 84 1014.8
20260506170005 16 111 6.4 17.7 0.00 0.20 0.20 84 1014.8
20260506165905 16 113 6.4 17.7 0.00 0.20 0.20 84 1014.7
20260506165805 16 116 8.0 17.7 0.00 0.20 0.20 84 1014.7
20260506165705 16 116 8.0 17.7 0.00 0.20 0.20 84 1014.8
20260506165604 16 113 8.0 17.7 0.00 0.20 0.20 84 1014.8
20260506165504 16 116 6.4 17.7 0.00 0.20 0.20 84 1014.7
20260506165405 16 115 6.4 17.7 0.00 0.20 0.20 84 1014.7
20260506165306 16 117 6.4 17.7 0.00 0.20 0.20 84 1014.8
20260506165205 16 121 6.4 17.7 0.00 0.20 0.20 83 1014.8
20260506165105 16 120 6.4 20.9 0.00 0.20 0.20 83 1014.9
20260506165005 16 122 8.0 20.9 0.00 0.20 0.20 83 1014.8
20260506164905 16 124 8.0 20.9 0.00 0.20 0.20 83 1014.8
20260506164825 16 124 8.0 20.9 0.00 0.20 0.20 83 1014.8
20260506164725 16 125 8.0 20.9 0.00 0.20 0.20 83 1014.8
20260506164605 16 127 8.0 20.9 0.00 0.20 0.20 83 1014.7
20260506164504 16 129 8.0 20.9 0.00 0.20 0.20 83 1014.7
20260506164405 16 132 8.0 20.9 0.00 0.20 0.20 83 1014.8
20260506164305 16 130 8.0 20.9 0.00 0.20 0.20 83 1014.7
20260506164205 16 131 8.0 20.9 0.00 0.20 0.20 82 1014.8
20260506164105 16 131 8.0 20.9 0.00 0.20 0.20 82 1014.7
20260506164005 16 129 8.0 20.9 0.00 0.20 0.20 83 1014.7
20260506163905 16 128 8.0 20.9 0.00 0.20 0.20 82 1014.7
20260506163805 16 130 8.0 16.1 0.00 0.20 0.20 83 1014.6
20260506163705 16 127 6.4 16.1 0.00 0.20 0.20 83 1014.6
20260506163604 16 127 6.4 16.1 0.00 0.20 0.20 83 1014.8
20260506163506 16 123 6.4 16.1 0.00 0.20 0.20 83 1014.7
20260506163405 16 122 6.4 12.9 0.00 0.20 0.20 83 1014.6
20260506163326 16 121 6.4 12.9 0.00 0.20 0.20 83 1014.6
20260506163226 16 118 4.8 12.9 0.00 0.20 0.20 83 1014.7
20260506163106 16 127 6.4 14.5 0.00 0.20 0.20 83 1014.8
20260506163005 16 130 6.4 14.5 0.00 0.20 0.20 83 1014.9
20260506162905 16 129 6.4 14.5 0.00 0.20 0.20 83 1014.8
20260506162805 16 132 6.4 16.1 0.00 0.20 0.20 83 1014.7
20260506162705 16 130 6.4 16.1 0.00 0.20 0.20 83 1014.9
20260506162605 16 133 6.4 16.1 0.00 0.20 0.20 83 1015.0
20260506162505 16 136 6.4 16.1 0.00 0.20 0.20 83 1014.8
20260506162426 16 136 6.4 16.1 0.00 0.20 0.20 83 1014.8
20260506162325 16 140 6.4 16.1 0.00 0.20 0.20 83 1014.7
20260506162204 16 140 6.4 16.1 0.00 0.20 0.20 83 1014.9
20260506162125 16 136 6.4 16.1 0.00 0.20 0.20 83 1014.9
20260506162005 16 135 6.4 16.1 0.00 0.20 0.20 83 1015.0
20260506161925 16 138 6.4 16.1 0.00 0.20 0.20 83 1015.0
20260506161805 16 141 6.4 16.1 0.00 0.20 0.20 83 1014.9
20260506161727 16 142 6.4 16.1 0.00 0.20 0.20 83 1014.9
20260506161604 16 148 6.4 16.1 0.00 0.20 0.20 83 1015.0
20260506161505 16 151 6.4 16.1 0.00 0.20 0.20 83 1014.9
20260506161405 16 150 6.4 14.5 0.00 0.20 0.20 83 1014.8
20260506161326 16 148 6.4 14.5 0.00 0.20 0.20 83 1014.8
20260506161206 16 149 6.4 14.5 0.00 0.20 0.20 82 1014.9
20260506161105 16 144 4.8 14.5 0.00 0.20 0.20 82 1014.9
20260506161005 16 148 6.4 14.5 0.00 0.20 0.20 82 1014.8
20260506160904 16 143 6.4 14.5 0.00 0.20 0.20 82 1014.9
20260506160806 16 137 6.4 14.5 0.00 0.20 0.20 82 1014.7
20260506160704 17 136 6.4 14.5 0.00 0.20 0.20 82 1014.7
20260506160604 17 134 6.4 19.3 0.00 0.20 0.20 81 1014.9
20260506160505 17 131 6.4 19.3 0.00 0.20 0.20 81 1014.6
20260506160425 17 129 6.4 19.3 0.00 0.20 0.20 82 1014.6
20260506160304 17 128 6.4 19.3 0.00 0.20 0.20 82 1014.6
20260506160205 17 130 6.4 19.3 0.00 0.20 0.20 82 1014.7
20260506160105 17 131 6.4 19.3 0.00 0.20 0.20 81 1014.9
20260506160005 17 131 8.0 19.3 0.00 0.20 0.20 81 1014.8
20260506155904 17 132 8.0 19.3 0.00 0.20 0.20 81 1014.8
20260506155805 17 137 8.0 19.3 0.00 0.20 0.20 81 1014.9
20260506155705 17 139 8.0 19.3 0.00 0.20 0.20 81 1014.7
20260506155605 17 137 6.4 19.3 0.00 0.20 0.20 81 1014.7
20260506155526 17 136 6.4 17.7 0.00 0.20 0.20 81 1014.7
20260506155405 17 138 6.4 19.3 0.00 0.20 0.20 81 1014.8
20260506155306 17 133 6.4 19.3 0.00 0.20 0.20 81 1014.7
20260506155204 17 132 8.0 19.3 0.00 0.20 0.20 81 1014.9
20260506155104 17 133 8.0 19.3 0.00 0.20 0.20 80 1014.9
20260506155025 17 136 8.0 19.3 0.00 0.20 0.20 80 1014.9
20260506154904 17 133 8.0 19.3 0.00 0.20 0.20 80 1015.0
20260506154805 17 130 8.0 19.3 0.00 0.20 0.20 80 1014.9
20260506154704 17 129 8.0 19.3 0.00 0.20 0.20 80 1014.8
20260506154605 17 129 8.0 19.3 0.00 0.20 0.20 80 1014.7
20260506154505 17 129 8.0 19.3 0.00 0.20 0.20 80 1014.8
20260506154425 17 127 8.0 17.7 0.00 0.20 0.20 80 1014.8
20260506154305 17 130 8.0 17.7 0.00 0.20 0.20 80 1014.8
20260506154205 17 131 8.0 17.7 0.00 0.20 0.20 80 1014.8
20260506154105 17 132 6.4 16.1 0.00 0.20 0.20 80 1014.6
20260506154006 17 127 6.4 16.1 0.00 0.20 0.20 80 1014.7
20260506153906 17 129 6.4 16.1 0.00 0.20 0.20 80 1014.9
20260506153826 17 128 6.4 16.1 0.00 0.20 0.20 80 1014.9
20260506153726 17 126 6.4 16.1 0.00 0.20 0.20 80 1014.7
20260506153605 17 123 6.4 16.1 0.00 0.20 0.20 80 1014.7
20260506153505 17 121 6.4 16.1 0.00 0.20 0.20 80 1014.8
20260506153404 17 122 6.4 16.1 0.00 0.20 0.20 80 1014.7
20260506153304 17 124 6.4 16.1 0.00 0.20 0.20 79 1014.9
20260506153204 17 121 6.4 16.1 0.00 0.20 0.20 79 1014.8
20260506153104 17 121 6.4 16.1 0.00 0.20 0.20 79 1014.5
20260506153004 17 120 6.4 16.1 0.00 0.20 0.20 80 1014.7
20260506152904 17 118 6.4 16.1 0.00 0.20 0.20 79 1014.9
20260506152805 17 119 6.4 16.1 0.00 0.20 0.20 79 1014.4
20260506152705 17 121 6.4 16.1 0.00 0.20 0.20 79 1014.6
20260506152604 17 125 6.4 16.1 0.00 0.20 0.20 79 1014.7
20260506152505 17 126 6.4 16.1 0.00 0.20 0.20 79 1014.6
20260506152404 17 129 6.4 16.1 0.00 0.20 0.20 79 1014.8
20260506152306 17 129 6.4 16.1 0.00 0.20 0.20 79 1014.8
20260506152226 17 127 6.4 16.1 0.00 0.20 0.20 79 1014.8
20260506152105 17 128 6.4 16.1 0.00 0.20 0.20 79 1014.7
20260506152026 17 128 6.4 16.1 0.00 0.20 0.20 79 1014.7
20260506151926 17 132 6.4 17.7 0.00 0.20 0.20 79 1014.7
20260506151826 17 133 6.4 17.7 0.00 0.20 0.20 79 1014.8
20260506151704 17 131 8.0 17.7 0.00 0.20 0.20 79 1014.8
20260506151604 17 129 8.0 17.7 0.00 0.20 0.20 79 1014.8
20260506151525 17 127 8.0 17.7 0.00 0.20 0.20 79 1014.8
20260506151404 17 128 8.0 17.7 0.00 0.20 0.20 79 1014.8
20260506151304 17 126 8.0 17.7 0.00 0.20 0.20 79 1014.8
20260506151205 17 127 8.0 17.7 0.00 0.20 0.20 79 1014.7
20260506151104 17 126 8.0 19.3 0.00 0.20 0.20 78 1014.8
20260506151005 17 126 8.0 20.9 0.00 0.20 0.20 78 1014.9
20260506150904 17 130 8.0 20.9 0.00 0.20 0.20 78 1014.9
20260506150805 17 131 8.0 20.9 0.00 0.20 0.20 78 1014.8
20260506150705 17 130 8.0 20.9 0.00 0.20 0.20 78 1014.7
20260506150605 17 129 8.0 20.9 0.00 0.20 0.20 78 1014.8
20260506150506 17 129 8.0 20.9 0.00 0.20 0.20 79 1014.9
20260506150405 17 127 9.7 20.9 0.00 0.20 0.20 79 1014.8
20260506150305 17 126 9.7 20.9 0.00 0.20 0.20 78 1014.8
20260506150205 17 125 9.7 20.9 0.00 0.20 0.20 78 1014.7
20260506150105 17 124 9.7 20.9 0.00 0.20 0.20 78 1014.7
20260506150004 17 120 8.0 19.3 0.00 0.20 0.20 77 1014.6
20260506145904 17 116 8.0 19.3 0.00 0.20 0.20 78 1014.8
20260506145806 17 117 8.0 19.3 0.00 0.20 0.20 78 1014.6
20260506145704 17 117 9.7 19.3 0.00 0.20 0.20 78 1014.7
20260506145625 17 122 9.7 19.3 0.00 0.20 0.20 78 1014.7
20260506145505 17 122 8.0 19.3 0.00 0.20 0.20 78 1014.5
20260506145404 17 122 8.0 19.3 0.00 0.20 0.20 78 1014.7
20260506145326 17 122 8.0 19.3 0.00 0.20 0.20 77 1014.7
20260506145205 17 122 8.0 19.3 0.00 0.20 0.20 77 1014.7
20260506145127 17 123 8.0 17.7 0.00 0.20 0.20 77 1014.7
20260506145004 17 126 8.0 17.7 0.00 0.20 0.20 76 1014.6
20260506144925 17 125 8.0 17.7 0.00 0.20 0.20 76 1014.6
20260506144826 17 121 8.0 17.7 0.00 0.20 0.20 77 1014.7
20260506144704 17 116 6.4 17.7 0.00 0.20 0.20 77 1014.5
20260506144605 17 113 6.4 19.3 0.00 0.20 0.20 77 1014.7
20260506144505 17 111 6.4 19.3 0.00 0.20 0.20 77 1014.7
20260506144405 17 113 8.0 19.3 0.00 0.20 0.20 77 1014.8
20260506144304 17 113 8.0 20.9 0.00 0.20 0.20 77 1014.7
20260506144204 17 117 8.0 20.9 0.00 0.20 0.20 77 1014.7
20260506144104 17 116 8.0 20.9 0.00 0.20 0.20 77 1014.6
20260506144004 17 115 8.0 20.9 0.00 0.20 0.20 77 1014.6
20260506143904 17 116 8.0 20.9 0.00 0.20 0.20 78 1014.6
20260506143804 17 116 8.0 20.9 0.00 0.20 0.20 77 1014.7
20260506143704 17 116 8.0 20.9 0.00 0.20 0.20 77 1014.8
20260506143605 17 119 8.0 20.9 0.00 0.20 0.20 76 1014.6
20260506143504 17 120 9.7 20.9 0.00 0.20 0.20 76 1014.6
20260506143404 17 120 9.7 20.9 0.00 0.20 0.20 76 1014.5
20260506143305 17 123 8.0 19.3 0.00 0.20 0.20 75 1014.8
20260506143204 17 123 8.0 19.3 0.00 0.20 0.20 75 1014.5
20260506143126 17 121 8.0 19.3 0.00 0.20 0.20 75 1014.5
20260506143005 18 121 8.0 19.3 0.00 0.20 0.20 75 1014.8
20260506142905 18 120 8.0 17.7 0.00 0.20 0.20 75 1014.7
20260506142806 18 124 6.4 17.7 0.00 0.20 0.20 74 1014.8
20260506142704 18 127 6.4 17.7 0.00 0.20 0.20 75 1014.6
20260506142606 18 130 6.4 17.7 0.00 0.20 0.20 75 1014.9
20260506142505 18 131 4.8 17.7 0.00 0.20 0.20 76 1014.8
20260506142405 18 136 4.8 12.9 0.00 0.20 0.20 76 1014.9
20260506142306 18 139 4.8 12.9 0.00 0.20 0.20 76 1014.9
20260506142205 17 144 4.8 12.9 0.00 0.20 0.20 76 1014.8
20260506142105 18 156 4.8 17.7 0.00 0.20 0.20 75 1014.8
20260506142005 18 152 6.4 17.7 0.00 0.20 0.20 75 1014.9
20260506141904 18 160 6.4 17.7 0.00 0.20 0.20 75 1014.7
20260506141805 18 160 6.4 17.7 0.00 0.20 0.20 75 1014.7
20260506141725 18 158 6.4 17.7 0.00 0.20 0.20 76 1014.7
20260506141604 18 150 6.4 17.7 0.00 0.20 0.20 75 1014.9
20260506141504 18 148 6.4 17.7 0.00 0.20 0.20 75 1014.5
20260506141404 18 150 6.4 17.7 0.00 0.20 0.20 75 1014.8
20260506141304 18 147 6.4 17.7 0.00 0.20 0.20 75 1014.8
20260506141204 18 146 6.4 17.7 0.00 0.20 0.20 75 1014.6
20260506141126 18 142 6.4 17.7 0.00 0.20 0.20 75 1014.6
20260506141004 18 144 6.4 16.1 0.00 0.20 0.20 75 1014.6
20260506140925 18 141 6.4 16.1 0.00 0.20 0.20 75 1014.6
20260506140805 18 148 6.4 14.5 0.00 0.20 0.20 75 1014.8
20260506140704 18 155 6.4 14.5 0.00 0.20 0.20 75 1014.8
20260506140626 18 167 6.4 14.5 0.00 0.20 0.20 74 1014.7
20260506140505 18 166 6.4 14.5 0.00 0.20 0.20 75 1014.6
20260506140405 18 154 6.4 14.5 0.00 0.20 0.20 75 1014.8
20260506140304 18 154 6.4 17.7 0.00 0.20 0.20 75 1014.7
20260506140205 18 143 6.4 17.7 0.00 0.20 0.20 75 1014.6
20260506140104 18 142 6.4 17.7 0.00 0.20 0.20 74 1014.8
20260506140005 18 139 8.0 17.7 0.00 0.20 0.20 74 1014.6
20260506135904 18 131 8.0 17.7 0.00 0.20 0.20 74 1014.6
20260506135804 18 129 8.0 17.7 0.00 0.20 0.20 74 1014.8
20260506135704 18 129 8.0 17.7 0.00 0.20 0.20 74 1014.8
20260506135605 18 123 8.0 17.7 0.00 0.20 0.20 75 1014.8
20260506135505 18 127 8.0 17.7 0.00 0.20 0.20 75 1014.9
20260506135405 18 132 8.0 17.7 0.00 0.20 0.20 75 1014.9
20260506135326 18 135 8.0 17.7 0.00 0.20 0.20 75 1014.9
20260506135204 18 142 8.0 17.7 0.00 0.20 0.20 75 1014.8
20260506135105 18 147 6.4 17.7 0.00 0.20 0.20 75 1015.0
20260506135005 18 151 6.4 17.7 0.00 0.20 0.20 74 1014.9
20260506134905 18 153 6.4 17.7 0.00 0.20 0.20 74 1014.8
20260506134805 18 170 6.4 20.9 0.00 0.20 0.20 74 1014.7
20260506134706 18 181 6.4 20.9 0.00 0.20 0.20 74 1014.7
20260506134626 18 185 6.4 20.9 0.00 0.20 0.20 74 1014.7
20260506134526 18 186 6.4 20.9 0.00 0.20 0.20 74 1014.7
20260506134404 18 184 6.4 20.9 0.00 0.20 0.20 74 1014.7
20260506134304 18 171 6.4 20.9 0.00 0.20 0.20 74 1014.8
20260506134204 18 167 6.4 20.9 0.00 0.20 0.20 74 1014.7
20260506134104 18 165 6.4 20.9 0.00 0.20 0.20 73 1014.7
20260506134004 18 162 6.4 20.9 0.00 0.20 0.20 73 1014.8
20260506133905 18 175 6.4 20.9 0.00 0.20 0.20 73 1014.8
20260506133825 18 167 6.4 20.9 0.00 0.20 0.20 73 1014.8
20260506133726 18 154 6.4 20.9 0.00 0.20 0.20 73 1014.7
20260506133605 18 149 6.4 20.9 0.00 0.20 0.20 72 1014.7
20260506133505 18 150 6.4 20.9 0.00 0.20 0.20 72 1014.7
20260506133404 18 150 6.4 20.9 0.00 0.20 0.20 72 1014.7
20260506133304 18 150 6.4 20.9 0.00 0.20 0.20 72 1014.7
20260506133205 18 151 6.4 20.9 0.00 0.20 0.20 72 1014.7
20260506133104 18 147 6.4 19.3 0.00 0.20 0.20 72 1014.9
20260506133006 18 148 6.4 19.3 0.00 0.20 0.20 72 1014.6
20260506132905 18 142 8.0 19.3 0.00 0.20 0.20 73 1014.7
20260506132806 18 138 8.0 19.3 0.00 0.20 0.20 73 1014.7
20260506132705 18 138 8.0 19.3 0.00 0.20 0.20 72 1014.7
20260506132604 18 139 8.0 19.3 0.00 0.20 0.20 72 1014.8
20260506132505 18 139 8.0 19.3 0.00 0.20 0.20 72 1014.8
20260506132405 18 142 8.0 19.3 0.00 0.20 0.20 72 1014.9
20260506132307 18 141 8.0 19.3 0.00 0.20 0.20 72 1015.1
20260506132204 18 146 8.0 19.3 0.00 0.20 0.20 73 1014.9
20260506132105 18 149 8.0 19.3 0.00 0.20 0.20 73 1014.8
20260506132005 18 148 8.0 19.3 0.00 0.20 0.20 72 1014.8
20260506131905 19 147 8.0 19.3 0.00 0.20 0.20 71 1014.7
20260506131805 19 149 8.0 19.3 0.00 0.20 0.20 71 1014.8
20260506131705 19 151 8.0 19.3 0.00 0.20 0.20 72 1014.6
20260506131605 19 152 8.0 19.3 0.00 0.20 0.20 71 1014.9
20260506131504 19 149 8.0 19.3 0.00 0.20 0.20 69 1014.8
20260506131404 19 144 8.0 19.3 0.00 0.20 0.20 69 1014.8
20260506131304 19 146 6.4 16.1 0.00 0.20 0.20 70 1014.7
20260506131204 19 142 6.4 14.5 0.00 0.20 0.20 70 1014.9
20260506131104 19 144 6.4 14.5 0.00 0.20 0.20 70 1014.7
20260506131004 19 153 6.4 16.1 0.00 0.20 0.20 70 1014.6
20260506130904 19 159 6.4 16.1 0.00 0.20 0.20 70 1014.8
20260506130806 19 158 6.4 16.1 0.00 0.20 0.20 70 1014.8
20260506130725 19 160 6.4 16.1 0.00 0.20 0.20 70 1014.8
20260506130625 19 169 6.4 19.3 0.00 0.20 0.20 71 1014.7
20260506130504 19 181 6.4 19.3 0.00 0.20 0.20 72 1014.8
20260506130404 19 182 8.0 19.3 0.00 0.20 0.20 72 1014.8
20260506130304 19 184 8.0 19.3 0.00 0.20 0.20 72 1014.8
20260506130204 19 182 8.0 19.3 0.00 0.20 0.20 72 1015.1
20260506130104 19 185 6.4 19.3 0.00 0.20 0.20 71 1014.9
20260506130005 19 183 6.4 19.3 0.00 0.20 0.20 72 1015.2
20260506125925 19 186 6.4 19.3 0.00 0.20 0.20 73 1015.2
20260506125805 19 196 8.0 19.3 0.00 0.20 0.20 72 1015.0
20260506125705 19 199 8.0 19.3 0.00 0.20 0.20 73 1015.0
20260506125604 19 207 6.4 19.3 0.00 0.20 0.20 72 1014.8
20260506125505 19 210 6.4 19.3 0.00 0.20 0.20 72 1014.7
20260506125404 19 218 6.4 19.3 0.00 0.20 0.20 72 1015.1
20260506125305 19 225 6.4 19.3 0.00 0.20 0.20 72 1015.3
20260506125226 19 226 6.4 19.3 0.00 0.20 0.20 72 1015.3
20260506125104 19 218 8.0 19.3 0.00 0.20 0.20 72 1014.9
20260506125005 19 211 8.0 17.7 0.00 0.20 0.20 72 1014.9
20260506124905 19 198 6.4 17.7 0.00 0.20 0.20 72 1014.9
20260506124804 19 184 6.4 17.7 0.00 0.20 0.20 71 1015.0
20260506124705 19 170 6.4 17.7 0.00 0.20 0.20 70 1014.8
20260506124604 19 153 6.4 17.7 0.00 0.20 0.20 70 1015.0
20260506124504 19 144 6.4 17.7 0.00 0.20 0.20 70 1014.9
20260506124404 19 139 6.4 17.7 0.00 0.20 0.20 70 1014.9
20260506124304 19 134 6.4 17.7 0.00 0.20 0.20 69 1014.9
20260506124205 19 126 6.4 17.7 0.00 0.20 0.20 69 1014.9
20260506124104 19 125 6.4 16.1 0.00 0.20 0.20 69 1015.1
20260506124004 19 120 6.4 16.1 0.00 0.20 0.20 69 1014.8
20260506123904 19 127 6.4 16.1 0.00 0.20 0.20 70 1014.9
20260506123805 19 125 6.4 16.1 0.00 0.20 0.20 70 1014.8
20260506123705 19 127 6.4 16.1 0.00 0.20 0.20 69 1014.8
20260506123626 19 133 6.4 16.1 0.00 0.20 0.20 70 1014.8
20260506123505 19 139 6.4 16.1 0.00 0.20 0.20 70 1014.9
20260506123405 19 140 6.4 16.1 0.00 0.20 0.20 70 1015.0
20260506123305 19 155 6.4 16.1 0.00 0.20 0.20 70 1015.1
20260506123205 19 174 6.4 16.1 0.00 0.20 0.20 70 1015.0
20260506123126 19 182 6.4 17.7 0.00 0.20 0.20 70 1015.0
20260506123005 19 184 6.4 19.3 0.00 0.20 0.20 70 1014.9
20260506122926 19 174 6.4 19.3 0.00 0.20 0.20 70 1014.9
20260506122805 19 169 8.0 19.3 0.00 0.20 0.20 69 1015.1
20260506122704 19 167 8.0 19.3 0.00 0.20 0.20 70 1015.3
20260506122606 19 161 8.0 19.3 0.00 0.20 0.20 70 1015.1
20260506122505 19 157 8.0 19.3 0.00 0.20 0.20 69 1015.3
20260506122404 20 161 8.0 19.3 0.00 0.20 0.20 69 1015.2
20260506122306 20 165 8.0 19.3 0.00 0.20 0.20 67 1015.3
20260506122225 20 161 8.0 19.3 0.00 0.20 0.20 67 1015.3
20260506122104 20 160 8.0 17.7 0.00 0.20 0.20 67 1015.3
20260506122004 20 157 6.4 17.7 0.00 0.20 0.20 67 1015.2
20260506121904 20 164 6.4 17.7 0.00 0.20 0.20 67 1015.3
20260506121804 20 172 6.4 17.7 0.00 0.20 0.20 67 1015.2
20260506121704 20 175 6.4 17.7 0.00 0.20 0.20 67 1015.4
20260506121606 20 174 6.4 17.7 0.00 0.20 0.20 66 1015.3
20260506121525 20 168 6.4 17.7 0.00 0.20 0.20 65 1015.3
20260506121404 20 153 6.4 17.7 0.00 0.20 0.20 66 1015.3
20260506121306 20 146 8.0 17.7 0.00 0.20 0.20 66 1015.1
20260506121226 20 146 8.0 19.3 0.00 0.20 0.20 66 1015.1
20260506121104 20 142 8.0 20.9 0.00 0.20 0.20 67 1014.9
20260506121026 20 143 8.0 20.9 0.00 0.20 0.20 67 1014.9
20260506120904 20 135 8.0 20.9 0.00 0.20 0.20 67 1015.2
20260506120805 20 136 8.0 20.9 0.00 0.20 0.20 67 1015.0
20260506120704 20 138 8.0 20.9 0.00 0.20 0.20 66 1015.0
20260506120604 20 129 8.0 20.9 0.00 0.20 0.20 66 1015.1
20260506120525 20 128 8.0 20.9 0.00 0.20 0.20 66 1015.1
20260506120405 20 132 8.0 20.9 0.00 0.20 0.20 66 1015.1
20260506120305 20 131 8.0 20.9 0.00 0.20 0.20 65 1015.1
20260506120225 20 126 8.0 20.9 0.00 0.20 0.20 65 1015.1
20260506120104 20 122 6.4 17.7 0.00 0.20 0.20 64 1015.1
20260506120005 20 122 6.4 17.7 0.00 0.20 0.20 65 1015.0
20260506115905 20 135 6.4 16.1 0.00 0.20 0.20 65 1015.2
20260506115805 20 134 6.4 14.5 0.00 0.20 0.20 66 1015.2
20260506115705 20 147 6.4 17.7 0.00 0.20 0.20 66 1015.2
20260506115625 20 165 6.4 19.3 0.00 0.20 0.20 66 1015.2
20260506115505 20 175 8.0 19.3 0.00 0.20 0.20 65 1015.2
20260506115405 20 167 8.0 24.1 0.00 0.20 0.20 65 1015.2
20260506115307 20 168 8.0 24.1 0.00 0.20 0.20 66 1015.1
20260506115204 20 175 8.0 24.1 0.00 0.20 0.20 66 1015.1
20260506115126 20 176 8.0 24.1 0.00 0.20 0.20 66 1015.1
20260506115006 20 183 9.7 24.1 0.00 0.20 0.20 65 1015.2
20260506114904 20 181 9.7 24.1 0.00 0.20 0.20 65 1015.2
20260506114825 20 178 9.7 24.1 0.00 0.20 0.20 65 1015.2
20260506114705 20 179 9.7 24.1 0.00 0.20 0.20 65 1015.2
20260506114625 20 176 8.0 24.1 0.00 0.20 0.20 65 1015.2
20260506114504 20 177 8.0 24.1 0.00 0.20 0.20 65 1015.1
20260506114426 20 184 8.0 24.1 0.00 0.20 0.20 64 1015.1
20260506114305 20 199 8.0 24.1 0.00 0.20 0.20 65 1015.2
20260506114205 20 200 8.0 20.9 0.00 0.20 0.20 66 1015.1
20260506114105 20 207 8.0 20.9 0.00 0.20 0.20 66 1015.1
20260506114006 20 205 8.0 20.9 0.00 0.20 0.20 67 1014.8
20260506113925 20 207 8.0 20.9 0.00 0.20 0.20 67 1014.8
20260506113804 20 213 8.0 20.9 0.00 0.20 0.20 68 1015.1
20260506113704 20 218 8.0 20.9 0.00 0.20 0.20 67 1014.9
20260506113604 20 216 8.0 20.9 0.00 0.20 0.20 67 1015.0
20260506113525 20 220 8.0 20.9 0.00 0.20 0.20 66 1015.0
20260506113425 20 218 8.0 20.9 0.00 0.20 0.20 66 1014.9
20260506113304 20 215 8.0 20.9 0.00 0.20 0.20 66 1014.8
20260506113204 20 211 8.0 20.9 0.00 0.20 0.20 66 1015.0
20260506113105 20 205 8.0 20.9 0.00 0.20 0.20 66 1015.0
20260506113005 20 208 8.0 17.7 0.00 0.20 0.20 66 1015.1
20260506112925 20 206 8.0 17.7 0.00 0.20 0.20 66 1015.1
20260506112805 19 205 8.0 17.7 0.00 0.20 0.20 66 1015.1
20260506112705 19 199 8.0 17.7 0.00 0.20 0.20 65 1015.2
20260506112604 19 197 8.0 25.7 0.00 0.20 0.20 65 1015.1
20260506112505 19 192 8.0 25.7 0.00 0.20 0.20 64 1015.2
20260506112404 19 194 8.0 25.7 0.00 0.20 0.20 64 1015.2
20260506112325 19 192 8.0 25.7 0.00 0.20 0.20 64 1015.2
20260506112225 20 196 8.0 25.7 0.00 0.20 0.20 64 1015.1
20260506112105 20 187 8.0 25.7 0.00 0.20 0.20 62 1015.2
20260506112005 20 181 8.0 25.7 0.00 0.20 0.20 61 1015.3
20260506111905 20 181 8.0 25.7 0.00 0.20 0.20 59 1015.1
20260506111804 20 177 8.0 25.7 0.00 0.20 0.20 59 1015.2
20260506111704 20 173 8.0 25.7 0.00 0.20 0.20 59 1015.0
20260506111604 20 168 8.0 22.5 0.00 0.20 0.20 58 1015.3
20260506111504 20 177 8.0 22.5 0.00 0.20 0.20 59 1015.0
20260506111404 20 171 6.4 20.9 0.00 0.20 0.20 58 1015.3
20260506111304 20 171 8.0 20.9 0.00 0.20 0.20 58 1015.2
20260506111204 20 167 6.4 20.9 0.00 0.20 0.20 57 1015.3
20260506111104 20 170 6.4 17.7 0.00 0.20 0.20 59 1014.9
20260506111004 20 176 6.4 17.7 0.00 0.20 0.20 58 1015.0
20260506110905 20 170 8.0 17.7 0.00 0.20 0.20 57 1015.0
20260506110804 20 166 8.0 17.7 0.00 0.20 0.20 57 1015.2
20260506110705 20 161 8.0 17.7 0.00 0.20 0.20 56 1015.0
20260506110606 20 161 8.0 17.7 0.00 0.20 0.20 56 1015.2
20260506110505 20 146 8.0 17.7 0.00 0.20 0.20 57 1015.1
20260506110404 20 143 8.0 17.7 0.00 0.20 0.20 57 1015.0
20260506110306 20 139 8.0 19.3 0.00 0.20 0.20 57 1015.0
20260506110226 20 139 8.0 19.3 0.00 0.20 0.20 57 1015.0
20260506110105 20 144 8.0 20.9 0.00 0.20 0.20 55 1015.2
20260506110026 20 144 8.0 20.9 0.00 0.20 0.20 57 1015.2
20260506105925 20 143 8.0 20.9 0.00 0.20 0.20 57 1015.2
20260506105804 20 155 8.0 20.9 0.00 0.20 0.20 57 1015.1
20260506105704 20 165 8.0 20.9 0.00 0.20 0.20 57 1015.3
20260506105604 20 171 8.0 20.9 0.00 0.20 0.20 57 1015.3
20260506105504 20 186 8.0 20.9 0.00 0.20 0.20 57 1015.2
20260506105425 20 191 8.0 20.9 0.00 0.20 0.20 57 1015.2
20260506105306 20 185 6.4 20.9 0.00 0.20 0.20 58 1015.3
20260506105204 20 178 8.0 20.9 0.00 0.20 0.20 58 1015.0
20260506105125 20 171 6.4 17.7 0.00 0.20 0.20 58 1015.0
20260506105004 20 158 8.0 22.5 0.00 0.20 0.20 58 1015.1
20260506104905 20 150 8.0 24.1 0.00 0.20 0.20 58 1015.2
20260506104804 20 148 8.0 24.1 0.00 0.20 0.20 59 1015.2
20260506104704 20 142 8.0 27.4 0.00 0.20 0.20 58 1015.1
20260506104604 20 139 9.7 27.4 0.00 0.20 0.20 57 1015.2
20260506104504 20 133 9.7 27.4 0.00 0.20 0.20 59 1015.2
20260506104404 20 135 9.7 27.4 0.00 0.20 0.20 57 1015.3
20260506104326 20 133 9.7 27.4 0.00 0.20 0.20 57 1015.3
20260506104205 20 133 9.7 27.4 0.00 0.20 0.20 56 1015.3
20260506104105 20 132 9.7 27.4 0.00 0.20 0.20 57 1015.2
20260506104004 20 132 9.7 27.4 0.00 0.20 0.20 57 1015.3
20260506103904 20 136 9.7 27.4 0.00 0.20 0.20 56 1015.3
20260506103804 20 136 9.7 27.4 0.00 0.20 0.20 58 1015.3
20260506103705 20 135 8.0 25.7 0.00 0.20 0.20 58 1015.4
20260506103626 20 135 8.0 25.7 0.00 0.20 0.20 57 1015.4
20260506103526 20 139 8.0 17.7 0.00 0.20 0.20 59 1015.3
20260506103425 20 140 8.0 17.7 0.00 0.20 0.20 59 1015.2
20260506103306 20 139 8.0 17.7 0.00 0.20 0.20 62 1015.3
20260506103204 19 139 8.0 17.7 0.00 0.20 0.20 61 1015.3
20260506103104 19 141 8.0 17.7 0.00 0.20 0.20 62 1015.4
20260506103004 19 141 8.0 17.7 0.00 0.20 0.20 61 1015.5
20260506102904 19 138 8.0 17.7 0.00 0.20 0.20 61 1015.5
20260506102804 19 136 8.0 19.3 0.00 0.20 0.20 61 1015.5
20260506102704 19 134 8.0 20.9 0.00 0.20 0.20 63 1015.5
20260506102626 19 133 8.0 20.9 0.00 0.20 0.20 60 1015.5
20260506102504 19 134 8.0 20.9 0.00 0.20 0.20 64 1015.3
20260506102404 19 132 8.0 20.9 0.00 0.20 0.20 65 1015.4
20260506102305 19 136 8.0 20.9 0.00 0.20 0.20 64 1015.3
20260506102205 18 137 8.0 20.9 0.00 0.20 0.20 65 1015.4
20260506102104 19 138 8.0 20.9 0.00 0.20 0.20 64 1015.5
20260506102004 19 139 8.0 20.9 0.00 0.20 0.20 63 1015.3
20260506101906 19 136 8.0 20.9 0.00 0.20 0.20 63 1015.3
20260506101825 19 135 8.0 20.9 0.00 0.20 0.20 61 1015.3
20260506101706 19 138 8.0 19.3 0.00 0.20 0.20 61 1015.4
20260506101605 19 139 8.0 19.3 0.00 0.20 0.20 61 1015.3
20260506101504 20 135 8.0 19.3 0.00 0.20 0.20 61 1015.4
20260506101405 20 138 8.0 19.3 0.00 0.20 0.20 61 1015.4
20260506101305 20 130 8.0 19.3 0.00 0.20 0.20 62 1015.2
20260506101225 20 132 8.0 19.3 0.00 0.20 0.20 64 1015.2
20260506101126 20 131 6.4 19.3 0.00 0.20 0.20 64 1015.2
20260506101005 20 130 6.4 19.3 0.00 0.20 0.20 64 1015.2
20260506100904 20 133 6.4 19.3 0.00 0.20 0.20 63 1015.4
20260506100805 20 133 6.4 19.3 0.00 0.20 0.20 63 1015.2
20260506100726 20 136 6.4 16.1 0.00 0.20 0.20 65 1015.2
20260506100605 19 140 6.4 16.1 0.00 0.20 0.20 68 1015.3
20260506100505 19 141 6.4 17.7 0.00 0.20 0.20 69 1015.4
20260506100425 19 139 6.4 17.7 0.00 0.20 0.20 68 1015.4
20260506100304 19 138 6.4 17.7 0.00 0.20 0.20 67 1015.5
20260506100204 19 142 6.4 17.7 0.00 0.20 0.20 68 1015.3
20260506100125 19 145 6.4 17.7 0.00 0.20 0.20 67 1015.3
20260506100005 19 143 6.4 17.7 0.00 0.20 0.20 68 1015.5
20260506095905 19 139 6.4 17.7 0.00 0.20 0.20 68 1015.5
20260506095804 19 139 6.4 17.7 0.00 0.20 0.20 68 1015.5
20260506095706 19 133 6.4 17.7 0.00 0.20 0.20 68 1015.3
20260506095604 19 133 6.4 17.7 0.00 0.20 0.20 68 1015.5
20260506095505 19 132 6.4 17.7 0.00 0.20 0.20 68 1015.4
20260506095404 19 130 6.4 17.7 0.00 0.20 0.20 67 1015.4
20260506095305 19 130 6.4 17.7 0.00 0.20 0.20 69 1015.3
20260506095206 18 126 6.4 16.1 0.00 0.20 0.20 69 1015.2
20260506095104 18 119 6.4 16.1 0.00 0.20 0.20 68 1015.2
20260506095004 18 122 8.0 19.3 0.00 0.20 0.20 66 1015.2
20260506094905 18 126 8.0 19.3 0.00 0.20 0.20 67 1015.3
20260506094805 18 123 6.4 19.3 0.00 0.20 0.20 66 1015.3
20260506094705 18 122 6.4 19.3 0.00 0.20 0.20 67 1015.4
20260506094626 18 116 6.4 19.3 0.00 0.20 0.20 67 1015.3
20260506094505 18 113 6.4 19.3 0.00 0.20 0.20 68 1015.1
20260506094405 18 115 6.4 19.3 0.00 0.20 0.20 67 1015.1
20260506094304 18 115 6.4 19.3 0.00 0.20 0.20 66 1015.2
20260506094204 19 115 6.4 19.3 0.00 0.20 0.20 68 1015.0
20260506094104 18 115 6.4 19.3 0.00 0.20 0.20 68 1015.3
20260506094004 18 111 6.4 17.7 0.00 0.20 0.20 69 1015.2
20260506093904 18 109 6.4 17.7 0.00 0.20 0.20 68 1015.0
20260506093805 18 112 6.4 17.7 0.00 0.20 0.20 70 1015.2
20260506093705 18 114 6.4 17.7 0.00 0.20 0.20 70 1015.2
20260506093625 18 116 6.4 17.7 0.00 0.20 0.20 70 1015.3
20260506093506 18 116 8.0 24.1 0.00 0.20 0.20 70 1015.2
20260506093404 18 115 8.0 24.1 0.00 0.20 0.20 70 1015.4
20260506093304 18 114 6.4 24.1 0.00 0.20 0.20 69 1015.2
20260506093204 18 112 6.4 24.1 0.00 0.20 0.20 70 1015.2
20260506093104 18 112 6.4 24.1 0.00 0.20 0.20 70 1015.3
20260506093004 18 113 6.4 24.1 0.00 0.20 0.20 69 1015.3
20260506092906 18 114 6.4 24.1 0.00 0.20 0.20 69 1015.3
20260506092804 18 115 6.4 24.1 0.00 0.20 0.20 68 1015.3
20260506092705 18 113 6.4 24.1 0.00 0.20 0.20 69 1015.3
20260506092605 18 110 6.4 24.1 0.00 0.20 0.20 70 1015.2
20260506092505 18 111 6.4 17.7 0.00 0.20 0.20 72 1015.3
20260506092404 18 113 6.4 17.7 0.00 0.20 0.20 72 1015.3
20260506092325 18 116 6.4 17.7 0.00 0.20 0.20 72 1015.3
20260506092205 18 120 6.4 17.7 0.00 0.20 0.20 71 1015.3
20260506092104 18 122 6.4 17.7 0.00 0.20 0.20 70 1015.2
20260506092004 18 120 6.4 17.7 0.00 0.20 0.20 70 1015.3
20260506091905 18 124 6.4 17.7 0.00 0.20 0.20 72 1015.3
20260506091804 18 126 6.4 16.1 0.00 0.20 0.20 70 1015.6
20260506091704 18 130 6.4 16.1 0.00 0.20 0.20 71 1015.6
20260506091604 18 132 6.4 16.1 0.00 0.20 0.20 71 1015.5
20260506091504 18 131 6.4 14.5 0.00 0.20 0.20 71 1015.7
20260506091405 18 130 6.4 14.5 0.00 0.20 0.20 71 1015.4
20260506091304 18 128 6.4 14.5 0.00 0.20 0.20 73 1015.5
20260506091225 18 125 6.4 14.5 0.00 0.20 0.20 73 1015.5
20260506091104 18 123 6.4 16.1 0.00 0.20 0.20 72 1015.5
20260506091005 18 126 6.4 17.7 0.00 0.20 0.20 73 1015.4
20260506090904 18 122 6.4 17.7 0.00 0.20 0.20 73 1015.4
20260506090804 18 120 6.4 17.7 0.00 0.20 0.20 72 1015.3
20260506090726 18 121 6.4 17.7 0.00 0.20 0.20 73 1015.3
20260506090605 17 122 6.4 17.7 0.00 0.20 0.20 73 1015.4
20260506090525 17 126 6.4 17.7 0.00 0.20 0.20 73 1015.4
20260506090404 17 132 6.4 17.7 0.00 0.20 0.20 72 1015.4
20260506090304 17 136 6.4 17.7 0.00 0.20 0.20 72 1015.4
20260506090204 17 137 6.4 17.7 0.00 0.20 0.20 72 1015.5
20260506090105 18 140 6.4 17.7 0.00 0.20 0.20 70 1015.3
20260506090006 18 145 6.4 16.1 0.00 0.20 0.20 72 1015.3
20260506085904 18 141 6.4 16.1 0.00 0.20 0.20 71 1015.3
20260506085804 18 146 6.4 16.1 0.00 0.20 0.20 70 1015.3
20260506085704 18 141 6.4 16.1 0.00 0.20 0.20 71 1015.4
20260506085604 18 142 6.4 16.1 0.00 0.20 0.20 70 1015.3
20260506085504 18 135 6.4 16.1 0.00 0.20 0.20 71 1015.3
20260506085404 18 128 6.4 16.1 0.00 0.20 0.20 72 1015.5
20260506085306 18 126 6.4 16.1 0.00 0.20 0.20 73 1015.2
20260506085204 18 121 6.4 16.1 0.00 0.20 0.20 73 1015.3
20260506085104 18 121 6.4 16.1 0.00 0.20 0.20 73 1015.1
20260506085004 18 118 6.4 16.1 0.00 0.20 0.20 73 1015.1
20260506084904 18 125 6.4 16.1 0.00 0.20 0.20 73 1015.3
20260506084806 18 121 6.4 16.1 0.00 0.20 0.20 73 1015.2
20260506084705 18 122 6.4 16.1 0.00 0.20 0.20 74 1015.1
20260506084604 18 121 6.4 16.1 0.00 0.20 0.20 73 1015.4
20260506084504 18 123 4.8 12.9 0.00 0.20 0.20 76 1015.2
20260506084404 18 125 4.8 12.9 0.00 0.20 0.20 76 1015.2
20260506084304 17 121 4.8 12.9 0.00 0.20 0.20 76 1015.2
20260506084226 17 125 4.8 12.9 0.00 0.20 0.20 76 1015.2
20260506084125 17 132 4.8 12.9 0.00 0.20 0.20 76 1015.1
20260506084004 17 139 4.8 12.9 0.00 0.20 0.20 75 1015.1
20260506083905 17 133 4.8 12.9 0.00 0.20 0.20 75 1015.0
20260506083804 17 133 4.8 12.9 0.00 0.20 0.20 76 1015.2
20260506083725 17 130 4.8 12.9 0.00 0.20 0.20 76 1015.2